AFR191 VOBL-LFPG

Flight info

Callsign AFR191
Flight time N/A
Altitude 34000
Route VAGPU8A VAGPU Q8 AGELA G208 BBB/N0512F330 G208 APANO/N0509F340 G451 AAE Z8 VIKIT P628 RK G202 ZB L750 GODSI/N0498F360 L750 RANAH B801 NINOP B475 DOLOS B449 MAMED P130 REBLO/N0493F380 UM11 CRM UL746 ODERO DCT OPT DCT IRLOX DCT BALUX DCT BEGLA DCT LAMSI DCT ASPAT DCT VIBOM DCT BETEX DCT IDOSA DCT TOLVU/N0488F390 DCT RAPOR DCT VEDUS
Aircraft A359/H-SDE2E3GHIJ3J4J5LM1ORWXY/LB1D1

Departure

Time N/A
Airport Kempegowda International Airport Bengaluru (VOBL)

Arrival

Time 2026-05-08 08:30
Airport Charles de Gaulle International Airport (LFPG)
Time Latitude Longitude Altitude Speed Heading
2026-05-07 23:18 19.50528 72.89219 36802 ft 498 kts
2026-05-07 23:18 19.53991 72.89366 36813 ft 498 kts
2026-05-07 23:19 19.60912 72.89661 36812 ft 498 kts
2026-05-07 23:19 19.67834 72.89958 36810 ft 497 kts 360°
2026-05-07 23:20 19.74739 72.90256 36815 ft 496 kts 360°
2026-05-07 23:20 19.81646 72.90552 36815 ft 496 kts 360°
2026-05-07 23:21 19.88555 72.90843 36818 ft 497 kts 360°
2026-05-07 23:21 19.95455 72.91135 36817 ft 497 kts 360°
2026-05-07 23:22 20.02320 72.91431 36815 ft 496 kts 359°
2026-05-07 23:22 20.09221 72.91729 36825 ft 496 kts 359°
2026-05-07 23:23 20.16113 72.92028 36817 ft 496 kts 359°
2026-05-07 23:23 20.23010 72.92327 36817 ft 496 kts 360°
2026-05-07 23:24 20.29900 72.92626 36815 ft 496 kts 359°
2026-05-07 23:24 20.36785 72.92925 36814 ft 494 kts 359°
2026-05-07 23:25 20.43658 72.93224 36814 ft 494 kts 359°
2026-05-07 23:25 20.50535 72.93522 36811 ft 494 kts 359°
2026-05-07 23:26 20.57409 72.93821 36803 ft 494 kts 359°
2026-05-07 23:26 20.64282 72.94121 36808 ft 494 kts 359°
2026-05-07 23:27 20.74582 72.94571 36804 ft 493 kts 359°
2026-05-07 23:27 20.81399 72.94854 36810 ft 493 kts 359°
2026-05-07 23:28 20.88265 72.95093 36813 ft 493 kts 358°
2026-05-07 23:28 20.95121 72.95332 36815 ft 494 kts 358°
2026-05-07 23:29 21.02000 72.95579 36810 ft 494 kts 358°
2026-05-07 23:29 21.08870 72.95829 36810 ft 494 kts 358°
2026-05-07 23:30 21.14578 72.96039 36806 ft 494 kts 358°
2026-05-07 23:30 21.21444 72.96305 36807 ft 494 kts 359°
2026-05-07 23:31 21.28321 72.96663 36807 ft 494 kts 359°
2026-05-07 23:31 21.35190 72.97042 36806 ft 494 kts 359°
2026-05-07 23:32 21.42059 72.97410 36807 ft 494 kts 359°
2026-05-07 23:32 21.48924 72.97770 36804 ft 494 kts 359°
2026-05-07 23:33 21.55755 72.98098 36802 ft 493 kts 356°
2026-05-07 23:33 21.62502 72.97275 36801 ft 486 kts 345°
2026-05-07 23:34 21.69119 72.95795 36799 ft 486 kts 344°
2026-05-07 23:34 21.75721 72.94205 36794 ft 486 kts 343°
2026-05-07 23:35 21.82317 72.92618 36794 ft 486 kts 344°
2026-05-07 23:35 21.88919 72.91047 36804 ft 486 kts 343°
2026-05-07 23:36 21.95477 72.89494 36787 ft 485 kts 344°
2026-05-07 23:36 22.02060 72.87933 36788 ft 484 kts 343°
2026-05-07 23:37 22.08650 72.86368 36791 ft 484 kts 343°
2026-05-07 23:37 22.15237 72.84802 36790 ft 484 kts 343°
2026-05-07 23:38 22.21821 72.83236 36788 ft 484 kts 343°
2026-05-07 23:38 22.28395 72.81671 36790 ft 483 kts 343°
2026-05-07 23:39 22.34959 72.80106 36790 ft 483 kts 343°
2026-05-07 23:39 22.41487 72.78548 36787 ft 483 kts 343°
2026-05-07 23:40 22.48074 72.76975 36787 ft 483 kts 343°
2026-05-07 23:40 22.54629 72.75409 36781 ft 481 kts 343°
2026-05-07 23:41 22.61163 72.73846 36786 ft 480 kts 343°
2026-05-07 23:41 22.67691 72.72281 36788 ft 480 kts 343°
2026-05-07 23:42 22.74219 72.70716 36781 ft 480 kts 343°
2026-05-07 23:42 22.80713 72.69157 36778 ft 480 kts 343°
2026-05-07 23:43 22.87222 72.67594 36776 ft 478 kts 343°
2026-05-07 23:43 22.93723 72.66031 36775 ft 478 kts 343°
2026-05-07 23:44 23.00221 72.64466 36773 ft 478 kts 343°
2026-05-07 23:44 23.06717 72.62901 36771 ft 478 kts 343°
2026-05-07 23:45 23.13233 72.61407 36773 ft 478 kts 344°
2026-05-07 23:45 23.19748 72.59998 36767 ft 477 kts 344°
2026-05-07 23:46 23.26255 72.58584 36783 ft 477 kts 344°
2026-05-07 23:46 23.32758 72.57153 36783 ft 476 kts 344°
2026-05-07 23:47 23.39255 72.55715 36805 ft 476 kts 343°
2026-05-07 23:47 23.45736 72.54280 36779 ft 474 kts 343°
2026-05-07 23:48 23.52152 72.52858 36785 ft 473 kts 343°
2026-05-07 23:48 23.58603 72.51426 36785 ft 473 kts 343°
2026-05-07 23:49 23.65054 72.49993 36782 ft 473 kts 343°
2026-05-07 23:49 23.71507 72.48559 36786 ft 473 kts 343°
2026-05-07 23:50 23.77946 72.47127 36785 ft 471 kts 343°
2026-05-07 23:50 23.84375 72.45694 36789 ft 471 kts 343°
2026-05-07 23:51 23.90797 72.44262 36791 ft 471 kts 343°
2026-05-07 23:51 23.97227 72.42826 36791 ft 471 kts 343°
2026-05-07 23:52 24.03648 72.41394 36790 ft 470 kts 343°
2026-05-07 23:52 24.10015 72.39987 36790 ft 469 kts 343°
2026-05-07 23:53 24.16418 72.38571 36787 ft 469 kts 343°
2026-05-07 23:53 24.22810 72.37155 36788 ft 469 kts 343°
2026-05-07 23:54 24.29208 72.35736 36791 ft 469 kts 343°
2026-05-07 23:54 24.35617 72.34314 36790 ft 469 kts 343°
2026-05-07 23:55 24.41974 72.32902 36787 ft 469 kts 343°
2026-05-07 23:55 24.48374 72.31478 36787 ft 469 kts 343°
2026-05-07 23:56 24.54767 72.30055 36790 ft 469 kts 343°
2026-05-07 23:56 24.61157 72.28632 36789 ft 468 kts 343°
2026-05-07 23:57 24.67521 72.27213 36789 ft 466 kts 343°
2026-05-07 23:57 24.73879 72.25793 36785 ft 466 kts 343°
2026-05-07 23:58 24.80248 72.24372 36776 ft 466 kts 343°
2026-05-07 23:58 24.86609 72.22962 36792 ft 466 kts 343°
2026-05-07 23:59 24.92931 72.21559 36771 ft 465 kts 343°
2026-05-07 23:59 24.99283 72.20181 36767 ft 467 kts 346°
2026-05-08 00:00 25.05746 72.19322 36771 ft 469 kts 348°
2026-05-08 00:00 25.12240 72.18575 36771 ft 469 kts 348°
2026-05-08 00:01 25.18732 72.17850 36766 ft 469 kts 348°
2026-05-08 00:01 25.25212 72.17121 36767 ft 468 kts 348°
2026-05-08 00:02 25.31686 72.16385 36766 ft 467 kts 348°
2026-05-08 00:02 25.38157 72.15646 36765 ft 467 kts 348°
2026-05-08 00:03 25.44628 72.14907 36759 ft 467 kts 348°
2026-05-08 00:03 25.51046 72.14174 36757 ft 465 kts 348°
2026-05-08 00:04 25.57481 72.13439 36760 ft 464 kts 348°
2026-05-08 00:04 25.63909 72.12702 36758 ft 464 kts 348°
2026-05-08 00:05 25.70333 72.11967 36758 ft 464 kts 348°
2026-05-08 00:05 25.76764 72.11245 36762 ft 464 kts 348°
2026-05-08 00:06 25.83178 72.10527 36756 ft 462 kts 348°
2026-05-08 00:06 25.89587 72.09808 36752 ft 462 kts 348°
2026-05-08 00:07 25.95944 72.09092 36746 ft 462 kts 348°
2026-05-08 00:07 26.02344 72.08370 36757 ft 462 kts 348°
2026-05-08 00:08 26.08748 72.07649 36754 ft 461 kts 347°
2026-05-08 00:08 26.15118 72.06930 36759 ft 460 kts 347°
2026-05-08 00:09 26.21484 72.06210 36762 ft 460 kts 347°
2026-05-08 00:09 26.27847 72.05489 36756 ft 460 kts 347°
2026-05-08 00:10 26.34220 72.04767 36770 ft 460 kts 347°
2026-05-08 00:10 26.40573 72.04048 36761 ft 459 kts 347°
2026-05-08 00:11 26.46924 72.03326 36760 ft 458 kts 347°
2026-05-08 00:11 26.53232 72.02609 36760 ft 458 kts 347°
2026-05-08 00:12 26.59587 72.01885 36761 ft 458 kts 347°
2026-05-08 00:12 26.65931 72.01163 36761 ft 458 kts 347°
2026-05-08 00:13 26.72281 72.00439 36757 ft 458 kts 347°
2026-05-08 00:13 26.78626 71.99715 36755 ft 458 kts 347°
2026-05-08 00:14 26.84975 71.98989 36754 ft 458 kts 347°
2026-05-08 00:14 26.91317 71.98263 36772 ft 458 kts 347°
2026-05-08 00:15 26.97665 71.97537 36757 ft 457 kts 347°
2026-05-08 00:15 27.03993 71.96811 36752 ft 457 kts 347°
2026-05-08 00:16 27.10290 71.96088 36756 ft 457 kts 347°
2026-05-08 00:16 27.16612 71.95361 36752 ft 457 kts 347°
2026-05-08 00:17 27.22940 71.94633 36750 ft 457 kts 347°
2026-05-08 00:17 27.29271 71.93903 36754 ft 457 kts 347°
2026-05-08 00:18 27.34525 71.93297 36745 ft 457 kts 347°
2026-05-08 00:18 27.40850 71.92567 36739 ft 457 kts 347°
2026-05-08 00:19 27.47173 71.91836 36753 ft 457 kts 347°
2026-05-08 00:19 27.53489 71.91101 36738 ft 455 kts 346°
2026-05-08 00:20 27.59533 71.89431 36745 ft 441 kts 332°
2026-05-08 00:20 27.64762 71.86025 36726 ft 431 kts 317°
2026-05-08 00:21 27.68798 71.81115 36736 ft 426 kts 302°
2026-05-08 00:21 27.71734 71.75368 36732 ft 426 kts 298°
2026-05-08 00:22 27.74489 71.69434 36732 ft 427 kts 297°
2026-05-08 00:22 27.77232 71.63493 36732 ft 426 kts 297°
2026-05-08 00:23 27.79996 71.57565 36733 ft 426 kts 297°
2026-05-08 00:23 27.82765 71.51652 36744 ft 426 kts 297°
2026-05-08 00:24 27.85538 71.45730 36737 ft 426 kts 297°
2026-05-08 00:24 27.88296 71.39799 36726 ft 426 kts 297°
2026-05-08 00:25 27.90914 71.33796 36727 ft 426 kts 296°
2026-05-08 00:25 27.93496 71.27764 36723 ft 426 kts 296°
2026-05-08 00:26 27.96099 71.21729 36731 ft 426 kts 296°
2026-05-08 00:26 27.98711 71.15705 36730 ft 426 kts 296°
2026-05-08 00:27 28.01308 71.09719 36730 ft 426 kts 296°
2026-05-08 00:27 28.03919 71.03690 36726 ft 426 kts 296°
2026-05-08 00:28 28.06532 70.97646 36726 ft 426 kts 296°
2026-05-08 00:28 28.09134 70.91618 36727 ft 426 kts 296°
2026-05-08 00:29 28.11735 70.85581 36735 ft 426 kts 296°
2026-05-08 00:29 28.14333 70.79544 36716 ft 426 kts 296°
2026-05-08 00:30 28.16930 70.73499 36727 ft 426 kts 296°
2026-05-08 00:30 28.19523 70.67455 36726 ft 427 kts 296°
2026-05-08 00:31 28.22100 70.61441 36727 ft 427 kts 296°
2026-05-08 00:31 28.24691 70.55383 36727 ft 427 kts 296°
2026-05-08 00:32 28.27279 70.49322 36727 ft 427 kts 296°
2026-05-08 00:32 28.29865 70.43259 36727 ft 427 kts 296°
2026-05-08 00:33 28.32460 70.37204 36726 ft 427 kts 297°
2026-05-08 00:33 28.35818 70.31641 36727 ft 429 kts 310°
2026-05-08 00:34 28.40426 70.27291 36728 ft 436 kts 324°
2026-05-08 00:34 28.46047 70.24622 36729 ft 447 kts 338°
2026-05-08 00:35 28.52092 70.22845 36733 ft 450 kts 340°
2026-05-08 00:35 28.58186 70.21187 36734 ft 450 kts 340°
2026-05-08 00:36 28.64270 70.19509 36738 ft 450 kts 340°
2026-05-08 00:36 28.70332 70.17804 36740 ft 449 kts 339°
2026-05-08 00:37 28.76393 70.16086 36739 ft 448 kts 339°
2026-05-08 00:38 28.85488 70.13502 36746 ft 448 kts 339°
2026-05-08 00:38 28.91505 70.11792 36752 ft 448 kts 339°
2026-05-08 00:39 28.97564 70.10068 36751 ft 448 kts 339°
2026-05-08 00:39 29.03613 70.08345 36757 ft 448 kts 339°
2026-05-08 00:40 29.09663 70.06620 36759 ft 448 kts 339°
2026-05-08 00:40 29.15713 70.04893 36794 ft 448 kts 339°
2026-05-08 00:41 29.21758 70.03165 36786 ft 447 kts 339°
2026-05-08 00:41 29.27805 70.01434 36784 ft 447 kts 339°
2026-05-08 00:42 29.33800 69.99716 36801 ft 447 kts 339°
2026-05-08 00:42 29.39846 69.97981 36799 ft 447 kts 339°
2026-05-08 00:43 29.45880 69.96248 36816 ft 447 kts 340°
2026-05-08 00:43 29.51913 69.94513 36811 ft 446 kts 340°
2026-05-08 00:44 29.57938 69.92779 36826 ft 446 kts 339°
2026-05-08 00:44 29.63973 69.91041 36844 ft 446 kts 340°
2026-05-08 00:45 29.69993 69.89304 36843 ft 446 kts 339°
2026-05-08 00:45 29.76019 69.87560 36859 ft 446 kts 339°
2026-05-08 00:46 29.82004 69.85827 36852 ft 446 kts 339°
2026-05-08 00:46 29.88032 69.84080 36870 ft 446 kts 339°
2026-05-08 00:47 29.94058 69.82335 36907 ft 447 kts 340°
2026-05-08 00:47 30.00092 69.80580 36896 ft 447 kts 340°
2026-05-08 00:48 30.06117 69.78819 36912 ft 446 kts 340°
2026-05-08 00:48 30.12143 69.77066 36910 ft 446 kts 340°
2026-05-08 00:49 30.18171 69.75309 36920 ft 446 kts 340°
2026-05-08 00:49 30.24200 69.73554 36926 ft 447 kts 340°
2026-05-08 00:50 30.30229 69.71925 36923 ft 448 kts 342°
2026-05-08 00:50 30.36347 69.70479 36929 ft 448 kts 342°
2026-05-08 00:51 30.42463 69.69028 36925 ft 448 kts 342°
2026-05-08 00:51 30.48574 69.67545 36928 ft 449 kts 342°
2026-05-08 00:52 30.54689 69.66045 36933 ft 449 kts 342°
2026-05-08 00:52 30.60797 69.64541 36933 ft 449 kts 342°
2026-05-08 00:53 30.66905 69.63034 36939 ft 449 kts 342°
2026-05-08 00:53 30.73013 69.61517 36939 ft 448 kts 342°
2026-05-08 00:54 30.79108 69.60014 36944 ft 448 kts 342°
2026-05-08 00:54 30.85196 69.58510 36944 ft 447 kts 342°
2026-05-08 00:55 30.91300 69.57004 36945 ft 447 kts 342°
2026-05-08 00:55 30.97345 69.55506 36951 ft 447 kts 342°
2026-05-08 00:56 31.03422 69.53996 36950 ft 446 kts 342°
2026-05-08 00:56 31.09503 69.52485 36951 ft 446 kts 342°
2026-05-08 00:57 31.15587 69.50970 36957 ft 447 kts 342°
2026-05-08 00:57 31.21677 69.49453 36973 ft 448 kts 342°
2026-05-08 00:58 31.27772 69.47925 36954 ft 447 kts 342°
2026-05-08 00:58 31.33513 69.45547 36947 ft 437 kts 329°
2026-05-08 00:59 31.38411 69.41472 36953 ft 431 kts 314°
2026-05-08 00:59 31.42339 69.36191 36955 ft 431 kts 308°
2026-05-08 01:00 31.46051 69.30674 36964 ft 431 kts 307°
2026-05-08 01:00 31.49738 69.25142 36972 ft 431 kts 308°
2026-05-08 01:01 31.53446 69.19620 36969 ft 431 kts 308°
2026-05-08 01:01 31.57168 69.14100 36971 ft 433 kts 308°
2026-05-08 01:02 31.60896 69.08569 36986 ft 432 kts 308°
2026-05-08 01:02 31.64620 69.03046 36997 ft 431 kts 308°
2026-05-08 01:03 31.68343 68.97546 36985 ft 430 kts 309°
2026-05-08 01:03 31.72196 68.92159 36974 ft 431 kts 309°
2026-05-08 01:04 31.76083 68.86790 36979 ft 431 kts 309°
2026-05-08 01:04 31.79950 68.81406 37002 ft 431 kts 309°
2026-05-08 01:05 31.83156 68.76916 36993 ft 431 kts 309°
2026-05-08 01:05 31.87633 68.70619 36994 ft 432 kts 309°
2026-05-08 01:06 31.91480 68.65204 37016 ft 431 kts 309°
2026-05-08 01:06 31.95329 68.59781 36995 ft 431 kts 309°
2026-05-08 01:07 31.98549 68.55235 37003 ft 431 kts 309°
2026-05-08 01:07 32.02366 68.49842 37010 ft 431 kts 309°
2026-05-08 01:08 32.06210 68.44403 37014 ft 432 kts 309°
2026-05-08 01:08 32.10053 68.38957 37017 ft 432 kts 309°
2026-05-08 01:09 32.13891 68.33509 37017 ft 432 kts 309°
2026-05-08 01:09 32.17729 68.28056 37020 ft 432 kts 309°
2026-05-08 01:10 32.21563 68.22599 37018 ft 432 kts 309°
2026-05-08 01:10 32.25397 68.17135 37020 ft 432 kts 309°
2026-05-08 01:11 32.29229 68.11665 37023 ft 433 kts 309°
2026-05-08 01:11 32.33078 68.06163 37023 ft 433 kts 309°
2026-05-08 01:12 32.36919 68.00664 37023 ft 433 kts 309°
2026-05-08 01:12 32.40755 67.95164 37023 ft 433 kts 309°
2026-05-08 01:13 32.44590 67.89658 37018 ft 433 kts 308°
2026-05-08 01:13 32.48423 67.84146 37018 ft 433 kts 309°
2026-05-08 01:14 32.52280 67.78663 37017 ft 433 kts 310°
2026-05-08 01:14 32.56262 67.73364 37018 ft 433 kts 311°
2026-05-08 01:15 32.60296 67.68054 37030 ft 434 kts 310°
2026-05-08 01:15 32.64317 67.62706 37016 ft 434 kts 310°
2026-05-08 01:16 32.68312 67.57350 37026 ft 433 kts 310°
2026-05-08 01:16 32.72294 67.51998 37023 ft 431 kts 310°
2026-05-08 01:17 32.76251 67.46671 37041 ft 429 kts 310°
2026-05-08 01:17 32.80161 67.41327 37033 ft 429 kts 309°
2026-05-08 01:18 32.83958 67.35864 37050 ft 428 kts 308°
2026-05-08 01:18 32.87740 67.30389 37060 ft 428 kts 308°
2026-05-08 01:19 32.91525 67.24948 37087 ft 427 kts 309°
2026-05-08 01:19 32.95314 67.19513 37080 ft 427 kts 308°
2026-05-08 01:20 32.99101 67.14074 37114 ft 426 kts 308°
2026-05-08 01:20 33.02878 67.08635 37106 ft 426 kts 309°
2026-05-08 01:21 33.06650 67.03184 37136 ft 427 kts 308°
2026-05-08 01:21 33.10445 66.97722 37133 ft 428 kts 308°
2026-05-08 01:22 33.14243 66.92254 37143 ft 428 kts 308°
2026-05-08 01:22 33.18033 66.86776 37140 ft 428 kts 308°
2026-05-08 01:23 33.21818 66.81294 37140 ft 428 kts 308°
2026-05-08 01:23 33.25608 66.75796 37143 ft 429 kts 308°
2026-05-08 01:24 33.29365 66.70343 37131 ft 427 kts 308°
2026-05-08 01:24 33.33142 66.64848 37129 ft 427 kts 308°
2026-05-08 01:25 33.36910 66.59353 37118 ft 427 kts 308°
2026-05-08 01:25 33.40677 66.53852 37105 ft 427 kts 308°
2026-05-08 01:26 33.44439 66.48345 37113 ft 427 kts 308°
2026-05-08 01:26 33.48203 66.42841 37099 ft 427 kts 308°
2026-05-08 01:27 33.51948 66.37326 37100 ft 426 kts 307°
2026-05-08 01:27 33.55660 66.31843 37104 ft 426 kts 308°
2026-05-08 01:28 33.59391 66.26328 37120 ft 426 kts 308°
2026-05-08 01:28 33.63125 66.20811 37113 ft 426 kts 307°
2026-05-08 01:29 33.66855 66.15274 37123 ft 427 kts 307°
2026-05-08 01:29 33.70586 66.09734 37111 ft 426 kts 308°
2026-05-08 01:30 33.74297 66.04197 37131 ft 425 kts 307°
2026-05-08 01:30 33.78014 65.98689 37136 ft 424 kts 307°
2026-05-08 01:31 33.81726 65.93170 37158 ft 425 kts 307°
2026-05-08 01:31 33.85441 65.87605 37144 ft 427 kts 307°
2026-05-08 01:32 33.89165 65.82024 37140 ft 427 kts 307°
2026-05-08 01:32 33.92895 65.76439 37140 ft 428 kts 307°
2026-05-08 01:33 33.96609 65.70888 37160 ft 428 kts 307°
2026-05-08 01:33 34.00332 65.65295 37157 ft 429 kts 307°
2026-05-08 01:34 34.04069 65.59661 37161 ft 429 kts 306°
2026-05-08 01:34 34.07798 65.54034 37165 ft 429 kts 306°
2026-05-08 01:35 34.11537 65.48404 37174 ft 431 kts 306°
2026-05-08 01:35 34.15278 65.42767 37176 ft 429 kts 306°
2026-05-08 01:36 34.19006 65.37138 37189 ft 430 kts 306°
2026-05-08 01:36 34.22736 65.31497 37180 ft 429 kts 306°
2026-05-08 01:37 34.26436 65.25894 37187 ft 429 kts 306°
2026-05-08 01:37 34.30160 65.20242 37184 ft 429 kts 306°
2026-05-08 01:38 34.33877 65.14592 37187 ft 429 kts 306°
2026-05-08 01:38 34.37595 65.08932 37188 ft 429 kts 306°
2026-05-08 01:39 34.41318 65.03261 37186 ft 430 kts 306°
2026-05-08 01:39 34.45034 64.97585 37179 ft 430 kts 306°
2026-05-08 01:40 34.48753 64.91899 37181 ft 430 kts 306°
2026-05-08 01:40 34.52442 64.86240 37185 ft 430 kts 306°
2026-05-08 01:41 34.56146 64.80541 37179 ft 430 kts 306°
2026-05-08 01:41 34.59845 64.74842 37178 ft 430 kts 306°
2026-05-08 01:42 34.63542 64.69136 37171 ft 430 kts 306°
2026-05-08 01:42 34.67236 64.63425 37163 ft 430 kts 306°
2026-05-08 01:43 34.70930 64.57706 37178 ft 430 kts 306°
2026-05-08 01:43 34.74616 64.51993 37150 ft 430 kts 305°
2026-05-08 01:44 34.78303 64.46267 37148 ft 430 kts 305°
2026-05-08 01:44 34.81986 64.40541 37144 ft 430 kts 306°
2026-05-08 01:45 34.85643 64.34837 37119 ft 430 kts 305°
2026-05-08 01:45 34.89337 64.29071 37135 ft 432 kts 305°
2026-05-08 01:46 34.93032 64.23301 37127 ft 431 kts 305°
2026-05-08 01:46 34.96723 64.17520 37119 ft 431 kts 306°
2026-05-08 01:47 35.00406 64.11746 37126 ft 431 kts 305°
2026-05-08 01:47 35.04060 64.06005 37123 ft 431 kts 305°
2026-05-08 01:48 35.09579 63.97321 37123 ft 433 kts 305°
2026-05-08 01:48 35.13275 63.91491 37119 ft 434 kts 305°
2026-05-08 01:49 35.16969 63.85652 37118 ft 434 kts 305°
2026-05-08 01:49 35.20661 63.79810 37123 ft 434 kts 305°
2026-05-08 01:50 35.24352 63.73960 37096 ft 434 kts 305°
2026-05-08 01:50 35.28042 63.68101 37111 ft 435 kts 305°
2026-05-08 01:51 35.31112 63.63219 37111 ft 435 kts 305°
2026-05-08 01:51 35.34818 63.57349 37107 ft 435 kts 305°
2026-05-08 01:52 35.38517 63.51491 37118 ft 435 kts 304°
2026-05-08 01:52 35.42221 63.45613 37100 ft 436 kts 304°
2026-05-08 01:53 35.45899 63.39763 37096 ft 436 kts 304°
2026-05-08 01:53 35.49604 63.33854 37088 ft 437 kts 304°
2026-05-08 01:54 35.53309 63.27943 37091 ft 437 kts 304°
2026-05-08 01:54 35.57190 63.22188 37086 ft 440 kts 311°
2026-05-08 01:55 35.62116 63.17625 37088 ft 449 kts 326°
2026-05-08 01:55 35.67655 63.13993 37082 ft 452 kts 328°
2026-05-08 01:56 35.73300 63.10542 37081 ft 454 kts 328°
2026-05-08 01:56 35.78934 63.07051 37077 ft 453 kts 327°
2026-05-08 01:57 35.84559 63.03529 37076 ft 453 kts 327°
2026-05-08 01:57 35.90138 63.00024 37076 ft 452 kts 327°
2026-05-08 01:58 35.95755 62.96490 37077 ft 453 kts 327°
2026-05-08 01:58 36.01370 62.92953 37071 ft 453 kts 327°
2026-05-08 01:59 36.06983 62.89412 37072 ft 453 kts 327°
2026-05-08 01:59 36.12595 62.85867 37097 ft 453 kts 327°
2026-05-08 02:00 36.18175 62.82337 37070 ft 453 kts 327°
2026-05-08 02:00 36.23781 62.78785 37076 ft 452 kts 327°
2026-05-08 02:01 36.29376 62.75232 37068 ft 451 kts 327°
2026-05-08 02:01 36.34967 62.71676 37064 ft 452 kts 327°
2026-05-08 02:02 36.40562 62.68112 37065 ft 452 kts 327°
2026-05-08 02:02 36.46157 62.64542 37062 ft 452 kts 327°
2026-05-08 02:03 36.51759 62.60962 37066 ft 452 kts 327°
2026-05-08 02:03 36.57321 62.57402 37060 ft 453 kts 327°
2026-05-08 02:04 36.62920 62.53813 37057 ft 453 kts 327°
2026-05-08 02:04 36.68530 62.50211 37058 ft 453 kts 327°
2026-05-08 02:05 36.74142 62.46600 37050 ft 455 kts 327°
2026-05-08 02:05 36.79778 62.42968 37048 ft 456 kts 327°
2026-05-08 02:06 36.85378 62.39355 37046 ft 456 kts 327°
2026-05-08 02:06 36.91015 62.35713 37047 ft 456 kts 327°
2026-05-08 02:07 36.96662 62.32056 37039 ft 457 kts 327°
2026-05-08 02:07 37.02316 62.28389 37040 ft 457 kts 327°
2026-05-08 02:08 37.07963 62.24721 37047 ft 457 kts 327°
2026-05-08 02:08 37.13618 62.21040 37034 ft 458 kts 326°
2026-05-08 02:09 37.19281 62.17348 37034 ft 458 kts 326°
2026-05-08 02:09 37.24939 62.13654 37057 ft 458 kts 326°
2026-05-08 02:10 37.30559 62.09979 37031 ft 458 kts 326°
2026-05-08 02:10 37.36242 62.06255 37028 ft 458 kts 326°
2026-05-08 02:11 37.41856 62.02571 37026 ft 458 kts 326°
2026-05-08 02:11 37.47496 61.98863 37043 ft 457 kts 326°
2026-05-08 02:12 37.53141 61.95145 37047 ft 457 kts 326°
2026-05-08 02:12 37.58385 61.90786 37055 ft 447 kts 313°
2026-05-08 02:13 37.62373 61.84940 37029 ft 436 kts 298°
2026-05-08 02:13 37.64808 61.78009 37026 ft 432 kts 286°
2026-05-08 02:14 37.66541 61.70752 37026 ft 432 kts 284°
2026-05-08 02:14 37.68180 61.63446 37027 ft 432 kts 284°
2026-05-08 02:15 37.69821 61.56192 37027 ft 432 kts 284°
2026-05-08 02:15 37.71492 61.48896 37042 ft 432 kts 284°
2026-05-08 02:16 37.73166 61.41601 37027 ft 432 kts 284°
2026-05-08 02:16 37.74834 61.34312 37027 ft 432 kts 284°
2026-05-08 02:17 37.76495 61.27024 37034 ft 430 kts 284°
2026-05-08 02:17 37.78142 61.19771 37031 ft 429 kts 284°
2026-05-08 02:18 37.79786 61.12509 37032 ft 429 kts 284°
2026-05-08 02:18 37.81423 61.05255 37046 ft 429 kts 284°
2026-05-08 02:19 37.83043 60.98058 37034 ft 427 kts 284°
2026-05-08 02:19 37.84666 60.90821 37035 ft 427 kts 284°
2026-05-08 02:20 37.86283 60.83589 37040 ft 427 kts 284°
2026-05-08 02:20 37.87895 60.76352 37040 ft 427 kts 284°
2026-05-08 02:21 37.89502 60.69116 37039 ft 427 kts 284°
2026-05-08 02:21 37.91108 60.61865 37045 ft 427 kts 284°
2026-05-08 02:22 37.92707 60.54622 37039 ft 426 kts 284°
2026-05-08 02:22 37.94299 60.47386 37043 ft 426 kts 284°
2026-05-08 02:23 37.95875 60.40204 37045 ft 426 kts 283°
2026-05-08 02:23 37.97456 60.32971 37045 ft 426 kts 283°
2026-05-08 02:24 37.99032 60.25739 37045 ft 426 kts 283°
2026-05-08 02:24 38.00602 60.18508 37045 ft 424 kts 283°
2026-05-08 02:25 38.02166 60.11301 37047 ft 422 kts 283°
2026-05-08 02:25 38.03708 60.04119 37050 ft 422 kts 283°
2026-05-08 02:26 38.05247 59.96927 37048 ft 422 kts 283°
2026-05-08 02:26 38.06781 59.89745 37050 ft 422 kts 283°
2026-05-08 02:27 38.08314 59.82557 37050 ft 420 kts 283°
2026-05-08 02:27 38.09831 59.75419 37051 ft 417 kts 283°
2026-05-08 02:28 38.11326 59.68356 37054 ft 416 kts 283°
2026-05-08 02:28 38.12824 59.61254 37055 ft 416 kts 283°
2026-05-08 02:29 38.14316 59.54162 37059 ft 415 kts 282°
2026-05-08 02:29 38.15798 59.47093 37050 ft 414 kts 282°
2026-05-08 02:30 38.17277 59.40013 37076 ft 414 kts 282°
2026-05-08 02:30 38.18745 59.32969 37060 ft 411 kts 282°
2026-05-08 02:31 38.20203 59.25948 37055 ft 409 kts 282°
2026-05-08 02:31 38.21650 59.18955 37057 ft 409 kts 282°
2026-05-08 02:32 38.23092 59.11958 37060 ft 409 kts 282°
2026-05-08 02:32 38.24521 59.05009 37059 ft 409 kts 282°
2026-05-08 02:33 38.25955 58.98009 37073 ft 408 kts 281°
2026-05-08 02:33 38.27381 58.91036 37063 ft 406 kts 281°
2026-05-08 02:34 38.28798 58.84072 37059 ft 406 kts 281°
2026-05-08 02:34 38.30208 58.77119 37058 ft 406 kts 281°
2026-05-08 02:35 38.31616 58.70155 37063 ft 406 kts 281°
2026-05-08 02:35 38.33020 58.63188 37056 ft 406 kts 281°
2026-05-08 02:36 38.34422 58.56213 37068 ft 406 kts 281°
2026-05-08 02:36 38.35808 58.49290 37059 ft 406 kts 281°
2026-05-08 02:37 38.37200 58.42311 37060 ft 406 kts 280°
2026-05-08 02:37 38.38585 58.35346 37060 ft 406 kts 280°
2026-05-08 02:38 38.39785 58.29565 37064 ft 407 kts 283°
2026-05-08 02:38 38.41904 58.22829 37064 ft 411 kts 288°
2026-05-08 02:39 38.44240 58.16173 37065 ft 411 kts 288°
2026-05-08 02:39 38.46608 58.09534 37067 ft 411 kts 288°
2026-05-08 02:40 38.48965 58.02890 37070 ft 411 kts 288°
2026-05-08 02:40 38.51311 57.96235 37069 ft 411 kts 288°
2026-05-08 02:41 38.53648 57.89579 37069 ft 410 kts 288°
2026-05-08 02:41 38.55976 57.82937 37070 ft 409 kts 288°
2026-05-08 02:42 38.58296 57.76300 37076 ft 409 kts 288°
2026-05-08 02:42 38.60597 57.69701 37075 ft 409 kts 288°
2026-05-08 02:43 38.62410 57.62885 37078 ft 403 kts 280°
2026-05-08 02:43 38.63819 57.55969 37080 ft 402 kts 279°
2026-05-08 02:44 38.65161 57.49020 37081 ft 402 kts 279°
2026-05-08 02:44 38.66497 57.42069 37080 ft 402 kts 279°
2026-05-08 02:45 38.67837 57.35125 37085 ft 402 kts 279°
2026-05-08 02:45 38.69177 57.28180 37086 ft 401 kts 278°
2026-05-08 02:46 38.70504 57.21281 37089 ft 401 kts 278°
2026-05-08 02:46 38.71835 57.14340 37098 ft 402 kts 278°
2026-05-08 02:47 38.73164 57.07382 37094 ft 402 kts 278°
2026-05-08 02:47 38.74488 57.00427 37095 ft 402 kts 278°
2026-05-08 02:48 38.75807 56.93477 37094 ft 401 kts 278°
2026-05-08 02:48 38.77122 56.86516 37098 ft 401 kts 278°
2026-05-08 02:49 38.78433 56.79561 37098 ft 401 kts 277°
2026-05-08 02:49 38.79739 56.72599 37101 ft 402 kts 277°
2026-05-08 02:50 38.81042 56.65629 37100 ft 402 kts 277°
2026-05-08 02:50 38.82340 56.58668 37100 ft 402 kts 277°
2026-05-08 02:51 38.83635 56.51698 37105 ft 401 kts 277°
2026-05-08 02:51 38.84923 56.44733 37102 ft 401 kts 277°
2026-05-08 02:52 38.86200 56.37802 37108 ft 403 kts 277°
2026-05-08 02:52 38.87485 56.30807 37111 ft 403 kts 277°
2026-05-08 02:53 38.88768 56.23798 37110 ft 403 kts 277°
2026-05-08 02:53 38.90046 56.16791 37108 ft 403 kts 276°
2026-05-08 02:54 38.91321 56.09783 37109 ft 403 kts 276°
2026-05-08 02:54 38.92591 56.02768 37108 ft 403 kts 276°
2026-05-08 02:55 38.94486 55.92250 37118 ft 405 kts 276°
2026-05-08 02:56 38.95750 55.85206 37119 ft 405 kts 276°
2026-05-08 02:56 38.97012 55.78149 37117 ft 405 kts 276°
2026-05-08 02:57 38.98269 55.71091 37123 ft 405 kts 276°
2026-05-08 02:57 38.99522 55.64028 37124 ft 406 kts 276°
2026-05-08 02:58 39.00773 55.56950 37117 ft 406 kts 276°
2026-05-08 02:58 39.02027 55.49856 37126 ft 407 kts 275°
2026-05-08 02:59 39.03275 55.42762 37119 ft 407 kts 275°
2026-05-08 02:59 39.04517 55.35659 37116 ft 407 kts 275°
2026-05-08 03:00 39.05750 55.28594 37119 ft 408 kts 275°
2026-05-08 03:00 39.06990 55.21461 37116 ft 409 kts 275°
2026-05-08 03:01 39.08226 55.14312 37115 ft 409 kts 275°
2026-05-08 03:01 39.09459 55.07168 37116 ft 409 kts 275°
2026-05-08 03:02 39.10690 55.00013 37111 ft 409 kts 275°
2026-05-08 03:02 39.11917 54.92855 37130 ft 409 kts 275°
2026-05-08 03:03 39.13138 54.85681 37119 ft 411 kts 275°
2026-05-08 03:03 39.14361 54.78483 37118 ft 411 kts 275°
2026-05-08 03:04 39.15580 54.71280 37116 ft 411 kts 274°
2026-05-08 03:04 39.16795 54.64070 37116 ft 412 kts 274°
2026-05-08 03:05 39.17998 54.56902 37145 ft 412 kts 274°
2026-05-08 03:05 39.19211 54.49673 37117 ft 414 kts 274°
2026-05-08 03:06 39.20416 54.42411 37115 ft 414 kts 274°
2026-05-08 03:06 39.21616 54.35148 37116 ft 415 kts 274°
2026-05-08 03:07 39.22815 54.27874 37113 ft 415 kts 274°
2026-05-08 03:07 39.24010 54.20598 37113 ft 415 kts 274°
2026-05-08 03:08 39.25202 54.13316 37114 ft 415 kts 274°
2026-05-08 03:08 39.26387 54.06040 37115 ft 415 kts 274°
2026-05-08 03:09 39.27569 53.98755 37115 ft 414 kts 274°
2026-05-08 03:09 39.28745 53.91473 37116 ft 414 kts 274°
2026-05-08 03:10 39.29918 53.84180 37139 ft 415 kts 274°
2026-05-08 03:10 39.31086 53.76876 37118 ft 417 kts 274°
2026-05-08 03:11 39.32248 53.69592 37114 ft 417 kts 273°
2026-05-08 03:11 39.33415 53.62249 37117 ft 417 kts 273°
2026-05-08 03:12 39.34577 53.54905 37124 ft 417 kts 273°
2026-05-08 03:12 39.35733 53.47565 37153 ft 417 kts 273°
2026-05-08 03:13 39.36888 53.40187 37125 ft 420 kts 273°
2026-05-08 03:13 39.38042 53.32791 37124 ft 420 kts 273°
2026-05-08 03:14 39.39195 53.25377 37127 ft 420 kts 273°
2026-05-08 03:14 39.40344 53.17962 37128 ft 420 kts 273°
2026-05-08 03:15 39.41485 53.10555 37148 ft 420 kts 273°
2026-05-08 03:15 39.42616 53.03162 37129 ft 423 kts 273°
2026-05-08 03:16 39.43758 52.95676 37139 ft 424 kts 273°
2026-05-08 03:16 39.44897 52.88191 37137 ft 424 kts 273°
2026-05-08 03:17 39.46034 52.80679 37135 ft 425 kts 273°
2026-05-08 03:17 39.47165 52.73166 37156 ft 426 kts 274°
2026-05-08 03:18 39.48296 52.65606 37130 ft 430 kts 274°
2026-05-08 03:18 39.49431 52.57997 37134 ft 430 kts 274°
2026-05-08 03:19 39.50555 52.50439 37135 ft 430 kts 274°
2026-05-08 03:19 39.51682 52.42826 37139 ft 430 kts 274°
2026-05-08 03:20 39.52801 52.35218 37152 ft 431 kts 274°
2026-05-08 03:20 39.53919 52.27563 37137 ft 434 kts 274°
2026-05-08 03:21 39.55040 52.19865 37154 ft 435 kts 274°
2026-05-08 03:21 39.56158 52.12167 37139 ft 434 kts 274°
2026-05-08 03:22 39.57270 52.04463 37141 ft 434 kts 274°
2026-05-08 03:22 39.58377 51.96755 37149 ft 435 kts 274°
2026-05-08 03:23 39.59482 51.89008 37146 ft 437 kts 274°
2026-05-08 03:23 39.60585 51.81248 37151 ft 438 kts 274°
2026-05-08 03:24 39.61679 51.73512 37145 ft 439 kts 274°
2026-05-08 03:24 39.62777 51.65718 37148 ft 439 kts 274°
2026-05-08 03:25 39.63871 51.57904 37149 ft 440 kts 274°
2026-05-08 03:25 39.64778 51.51393 37148 ft 441 kts 274°
2026-05-08 03:26 39.66014 51.43578 37149 ft 444 kts 277°
2026-05-08 03:26 39.67549 51.35786 37151 ft 445 kts 278°
2026-05-08 03:27 39.69085 51.28003 37149 ft 445 kts 277°
2026-05-08 03:27 39.70568 51.20195 37146 ft 445 kts 277°
2026-05-08 03:28 39.72021 51.12377 37147 ft 446 kts 277°
2026-05-08 03:28 39.73458 51.04598 37146 ft 445 kts 277°
2026-05-08 03:29 39.74901 50.96768 37148 ft 445 kts 277°
2026-05-08 03:29 39.76339 50.88937 37153 ft 446 kts 277°
2026-05-08 03:30 39.78494 50.77139 37148 ft 447 kts 277°
2026-05-08 03:31 39.81351 50.61393 37149 ft 448 kts 276°
2026-05-08 03:32 39.83484 50.49552 37148 ft 448 kts 276°
2026-05-08 03:32 39.84893 50.41690 37148 ft 448 kts 276°
2026-05-08 03:33 39.86302 50.33792 37151 ft 448 kts 276°
2026-05-08 03:33 39.87707 50.25886 37151 ft 448 kts 276°
2026-05-08 03:34 39.89107 50.17969 37149 ft 449 kts 276°
2026-05-08 03:34 39.90505 50.10026 37145 ft 450 kts 276°
2026-05-08 03:35 39.91902 50.02064 37148 ft 451 kts 276°
2026-05-08 03:35 39.93295 49.94093 37152 ft 451 kts 276°
2026-05-08 03:36 39.94682 49.86118 37157 ft 451 kts 276°
2026-05-08 03:36 39.96065 49.78130 37145 ft 452 kts 276°
2026-05-08 03:37 39.97435 49.70184 37144 ft 452 kts 276°
2026-05-08 03:37 39.98809 49.62181 37143 ft 452 kts 276°
2026-05-08 03:38 40.00178 49.54169 37139 ft 452 kts 276°
2026-05-08 03:38 40.01540 49.46158 37149 ft 453 kts 276°
2026-05-08 03:39 40.02902 49.38117 37145 ft 454 kts 276°
2026-05-08 03:39 40.04250 49.30119 37146 ft 454 kts 276°
2026-05-08 03:40 40.05601 49.22074 37149 ft 454 kts 276°
2026-05-08 03:40 40.06946 49.14020 37147 ft 454 kts 276°
2026-05-08 03:41 40.08290 49.05939 37143 ft 455 kts 276°
2026-05-08 03:41 40.09630 48.97852 37155 ft 455 kts 276°
2026-05-08 03:42 40.10964 48.89762 37151 ft 456 kts 276°
2026-05-08 03:42 40.12291 48.81673 37171 ft 456 kts 276°
2026-05-08 03:43 40.13619 48.73549 37156 ft 457 kts 276°
2026-05-08 03:43 40.14940 48.65423 37156 ft 457 kts 276°
2026-05-08 03:44 40.16245 48.57333 37157 ft 457 kts 276°
2026-05-08 03:44 40.17552 48.49194 37159 ft 457 kts 276°
2026-05-08 03:45 40.18855 48.41049 37156 ft 459 kts 276°
2026-05-08 03:45 40.20158 48.32871 37168 ft 459 kts 276°
2026-05-08 03:46 40.21457 48.24679 37159 ft 459 kts 276°
2026-05-08 03:46 40.22749 48.16495 37159 ft 459 kts 276°
2026-05-08 03:47 40.24035 48.08302 37164 ft 460 kts 276°
2026-05-08 03:47 40.25320 48.00071 37160 ft 462 kts 276°
2026-05-08 03:48 40.26602 47.91829 37162 ft 462 kts 276°
2026-05-08 03:48 40.27878 47.83583 37164 ft 462 kts 276°
2026-05-08 03:49 40.29147 47.75341 37181 ft 462 kts 276°
2026-05-08 03:49 40.30413 47.67069 37167 ft 464 kts 276°
2026-05-08 03:50 40.31677 47.58772 37168 ft 465 kts 276°
2026-05-08 03:50 40.32938 47.50463 37164 ft 465 kts 276°
2026-05-08 03:51 40.34184 47.42207 37165 ft 465 kts 276°
2026-05-08 03:51 40.35440 47.33835 37162 ft 466 kts 276°
2026-05-08 03:52 40.36679 47.25535 37162 ft 467 kts 276°
2026-05-08 03:52 40.37920 47.17180 37158 ft 467 kts 276°
2026-05-08 03:53 40.39155 47.08829 37152 ft 467 kts 276°
2026-05-08 03:53 40.40386 47.00455 37159 ft 467 kts 276°
2026-05-08 03:54 40.41611 46.92078 37162 ft 467 kts 276°
2026-05-08 03:54 40.42828 46.83705 37161 ft 467 kts 276°
2026-05-08 03:55 40.44040 46.75325 37158 ft 467 kts 276°
2026-05-08 03:55 40.45238 46.66995 37166 ft 467 kts 276°
2026-05-08 03:56 40.46441 46.58584 37164 ft 470 kts 276°
2026-05-08 03:56 40.47645 46.50136 37163 ft 471 kts 276°
2026-05-08 03:57 40.48842 46.41683 37161 ft 470 kts 276°
2026-05-08 03:57 40.50034 46.33225 37163 ft 470 kts 276°
2026-05-08 03:58 40.51222 46.24746 37164 ft 473 kts 277°
2026-05-08 03:58 40.52407 46.16230 37161 ft 474 kts 276°
2026-05-08 03:59 40.53580 46.07762 37165 ft 474 kts 276°
2026-05-08 03:59 40.54752 45.99243 37165 ft 474 kts 276°
2026-05-08 04:00 40.55917 45.90718 37171 ft 474 kts 277°
2026-05-08 04:00 40.57079 45.82167 37178 ft 475 kts 277°
2026-05-08 04:01 40.58236 45.73615 37180 ft 474 kts 277°
2026-05-08 04:01 40.59385 45.65077 37176 ft 474 kts 277°
2026-05-08 04:02 40.60527 45.56534 37188 ft 474 kts 277°
2026-05-08 04:02 40.61665 45.47962 37180 ft 475 kts 277°
2026-05-08 04:03 40.62797 45.39388 37178 ft 475 kts 277°
2026-05-08 04:03 40.64479 45.26574 37180 ft 475 kts 277°
2026-05-08 04:04 40.65598 45.17982 37184 ft 476 kts 277°
2026-05-08 04:04 40.66712 45.09375 37183 ft 477 kts 277°
2026-05-08 04:05 40.67821 45.00759 37184 ft 477 kts 277°
2026-05-08 04:05 40.68923 44.92140 37188 ft 477 kts 277°
2026-05-08 04:06 40.70013 44.83566 37191 ft 477 kts 277°
2026-05-08 04:06 40.71105 44.74924 37193 ft 478 kts 277°
2026-05-08 04:07 40.72192 44.66259 37192 ft 479 kts 277°
2026-05-08 04:07 40.73272 44.57599 37201 ft 479 kts 277°
2026-05-08 04:08 40.74347 44.48930 37199 ft 479 kts 277°
2026-05-08 04:08 40.75415 44.40261 37205 ft 479 kts 278°
2026-05-08 04:09 40.76478 44.31580 37213 ft 479 kts 277°
2026-05-08 04:09 40.77535 44.22888 37213 ft 479 kts 277°
2026-05-08 04:10 40.78407 44.15674 37218 ft 479 kts 277°
2026-05-08 04:10 40.79620 44.05570 37205 ft 480 kts 278°
2026-05-08 04:11 40.80489 43.98284 37219 ft 480 kts 278°
2026-05-08 04:11 40.81514 43.89639 37215 ft 480 kts 278°
2026-05-08 04:12 40.82540 43.80933 37213 ft 480 kts 277°
2026-05-08 04:12 40.83560 43.72213 37233 ft 480 kts 278°
2026-05-08 04:13 40.84483 43.63473 37217 ft 481 kts 274°
2026-05-08 04:13 40.84934 43.54655 37220 ft 481 kts 272°
2026-05-08 04:14 40.85305 43.45830 37223 ft 481 kts 272°
2026-05-08 04:14 40.85738 43.36994 37225 ft 481 kts 273°
2026-05-08 04:15 40.86206 43.28183 37230 ft 481 kts 273°
2026-05-08 04:15 40.86678 43.19363 37234 ft 481 kts 273°
2026-05-08 04:16 40.87142 43.10541 37244 ft 481 kts 273°
2026-05-08 04:16 40.87594 43.01769 37252 ft 481 kts 273°
2026-05-08 04:17 40.88044 42.92894 37251 ft 481 kts 273°
2026-05-08 04:17 40.88482 42.84115 37257 ft 482 kts 273°
2026-05-08 04:18 40.88917 42.75269 37258 ft 483 kts 273°
2026-05-08 04:18 40.89345 42.66419 37260 ft 482 kts 273°
2026-05-08 04:19 40.89766 42.57571 37256 ft 482 kts 273°
2026-05-08 04:19 40.90181 42.48717 37263 ft 483 kts 273°
2026-05-08 04:20 40.90589 42.39858 37256 ft 483 kts 273°
2026-05-08 04:20 40.90991 42.30981 37243 ft 483 kts 273°
2026-05-08 04:21 40.91386 42.22103 37250 ft 483 kts 273°
2026-05-08 04:21 40.91774 42.13248 37251 ft 483 kts 273°
2026-05-08 04:22 40.92155 42.04387 37249 ft 483 kts 273°
2026-05-08 04:22 40.92528 41.95559 37251 ft 484 kts 273°
2026-05-08 04:23 40.92895 41.86670 37240 ft 484 kts 273°
2026-05-08 04:23 40.93258 41.77759 37247 ft 484 kts 273°
2026-05-08 04:24 40.93613 41.68859 37232 ft 483 kts 273°
2026-05-08 04:24 40.93958 41.60030 37239 ft 484 kts 273°
2026-05-08 04:25 40.94300 41.51133 37221 ft 484 kts 273°
2026-05-08 04:25 40.94634 41.42233 37211 ft 484 kts 273°
2026-05-08 04:26 40.94962 41.33329 37220 ft 484 kts 273°
2026-05-08 04:26 40.95283 41.24427 37205 ft 484 kts 273°
2026-05-08 04:27 40.95598 41.15501 37206 ft 485 kts 273°
2026-05-08 04:27 40.95904 41.06637 37202 ft 485 kts 273°
2026-05-08 04:28 40.96205 40.97709 37206 ft 485 kts 273°
2026-05-08 04:28 40.96500 40.88782 37204 ft 485 kts 273°
2026-05-08 04:29 40.96787 40.79859 37198 ft 486 kts 273°
2026-05-08 04:29 40.97067 40.70919 37200 ft 486 kts 273°
2026-05-08 04:30 40.97340 40.61970 37206 ft 486 kts 273°
2026-05-08 04:30 40.97606 40.53039 37208 ft 486 kts 273°
2026-05-08 04:31 40.97865 40.44105 37196 ft 486 kts 273°
2026-05-08 04:31 40.98118 40.35166 37187 ft 486 kts 273°
2026-05-08 04:32 40.98364 40.26213 37192 ft 486 kts 273°
2026-05-08 04:32 40.98605 40.17280 37199 ft 486 kts 273°
2026-05-08 04:33 40.98835 40.08341 37205 ft 486 kts 273°
2026-05-08 04:33 40.99053 39.99408 37207 ft 485 kts 273°
2026-05-08 04:34 40.99266 39.90481 37209 ft 485 kts 273°
2026-05-08 04:34 40.99482 39.81552 37208 ft 485 kts 274°
2026-05-08 04:35 41.00179 39.72674 37213 ft 484 kts 278°
2026-05-08 04:35 41.01014 39.63828 37210 ft 484 kts 278°
2026-05-08 04:36 41.01870 39.54965 37206 ft 485 kts 278°
2026-05-08 04:36 41.02715 39.46111 37203 ft 484 kts 278°
2026-05-08 04:37 41.03540 39.37317 37198 ft 484 kts 278°
2026-05-08 04:37 41.04360 39.28487 37195 ft 483 kts 278°
2026-05-08 04:38 41.05173 39.19648 37196 ft 483 kts 278°
2026-05-08 04:38 41.05983 39.10804 37191 ft 483 kts 278°
2026-05-08 04:39 41.06801 39.01962 37192 ft 483 kts 278°
2026-05-08 04:39 41.07615 38.93115 37192 ft 483 kts 278°
2026-05-08 04:40 41.08421 38.84257 37181 ft 483 kts 278°
2026-05-08 04:40 41.09217 38.75426 37189 ft 482 kts 278°
2026-05-08 04:41 41.09998 38.66654 37189 ft 481 kts 278°
2026-05-08 04:41 41.10763 38.57832 37189 ft 481 kts 278°
2026-05-08 04:42 41.11505 38.49010 37181 ft 482 kts 278°
2026-05-08 04:42 41.12234 38.40173 37195 ft 482 kts 278°
2026-05-08 04:43 41.12960 38.31342 37199 ft 482 kts 278°
2026-05-08 04:43 41.13682 38.22499 37201 ft 482 kts 278°
2026-05-08 04:44 41.13771 38.21401 37201 ft 482 kts 278°
2026-05-08 04:45 41.13982 38.18838 37201 ft 482 kts 278°
2026-05-08 04:45 41.14711 38.10002 37199 ft 480 kts 278°
2026-05-08 04:46 41.15428 38.01204 37201 ft 480 kts 278°
2026-05-08 04:46 41.16134 37.92383 37199 ft 480 kts 278°
2026-05-08 04:47 41.16841 37.83575 37194 ft 480 kts 278°
2026-05-08 04:47 41.17592 37.74789 37184 ft 480 kts 278°
2026-05-08 04:48 41.18341 37.66040 37181 ft 479 kts 278°
2026-05-08 04:48 41.19039 37.57235 37179 ft 480 kts 277°
2026-05-08 04:49 41.19541 37.48404 37175 ft 479 kts 277°
2026-05-08 04:49 41.20165 37.39603 37168 ft 477 kts 278°
2026-05-08 04:50 41.20825 37.30835 37172 ft 476 kts 278°
2026-05-08 04:50 41.21476 37.22081 37173 ft 476 kts 278°
2026-05-08 04:51 41.22149 37.13331 37164 ft 476 kts 278°
2026-05-08 04:51 41.22835 37.04580 37164 ft 476 kts 278°
2026-05-08 04:52 41.23506 36.95882 37170 ft 476 kts 278°
2026-05-08 04:52 41.24171 36.87130 37169 ft 476 kts 278°
2026-05-08 04:53 41.24828 36.78377 37183 ft 476 kts 278°
2026-05-08 04:53 41.25477 36.69630 37184 ft 475 kts 278°
2026-05-08 04:54 41.26118 36.60899 37179 ft 474 kts 278°
2026-05-08 04:54 41.27297 36.52327 37156 ft 470 kts 289°
2026-05-08 04:55 41.29279 36.44050 37156 ft 470 kts 290°
2026-05-08 04:55 41.31030 36.37209 37157 ft 469 kts 291°
2026-05-08 04:56 41.33489 36.27651 37153 ft 469 kts 291°
2026-05-08 04:56 41.35580 36.19427 37157 ft 469 kts 291°
2026-05-08 04:57 41.37320 36.12534 37157 ft 469 kts 291°
2026-05-08 04:57 41.39385 36.04313 37151 ft 469 kts 290°
2026-05-08 04:58 41.41447 35.96073 37144 ft 468 kts 291°
2026-05-08 04:58 41.43484 35.87909 37149 ft 468 kts 291°
2026-05-08 04:59 41.45531 35.79678 37149 ft 467 kts 290°
2026-05-08 04:59 41.47571 35.71450 37149 ft 467 kts 290°
2026-05-08 05:00 41.49611 35.63202 37155 ft 467 kts 290°
2026-05-08 05:00 41.51636 35.54973 37155 ft 467 kts 290°
2026-05-08 05:01 41.53657 35.46726 37154 ft 467 kts 290°
2026-05-08 05:01 41.55673 35.38475 37142 ft 467 kts 290°
2026-05-08 05:02 41.57682 35.30221 37154 ft 467 kts 290°
2026-05-08 05:02 41.59681 35.21984 37160 ft 465 kts 290°
2026-05-08 05:03 41.61657 35.13812 37161 ft 465 kts 290°
2026-05-08 05:03 41.63640 35.05586 37156 ft 465 kts 290°
2026-05-08 05:04 41.65612 34.97367 37164 ft 465 kts 290°
2026-05-08 05:04 41.67582 34.89130 37157 ft 464 kts 290°
2026-05-08 05:05 41.69543 34.80911 37160 ft 464 kts 290°
2026-05-08 05:05 41.71500 34.72674 37155 ft 464 kts 290°
2026-05-08 05:06 41.73447 34.64448 37159 ft 463 kts 290°
2026-05-08 05:06 41.75389 34.56226 37159 ft 463 kts 290°
2026-05-08 05:07 41.77320 34.47989 37158 ft 463 kts 290°
2026-05-08 05:07 41.79246 34.39743 37161 ft 462 kts 290°
2026-05-08 05:08 41.81152 34.31576 37159 ft 462 kts 290°
2026-05-08 05:08 41.83068 34.23347 37159 ft 462 kts 290°
2026-05-08 05:09 41.84971 34.15124 37165 ft 462 kts 290°
2026-05-08 05:09 41.86871 34.06890 37159 ft 461 kts 290°
2026-05-08 05:10 41.89704 33.94547 37160 ft 461 kts 290°
2026-05-08 05:11 41.91583 33.86323 37158 ft 461 kts 290°
2026-05-08 05:11 41.93445 33.78144 37168 ft 460 kts 289°
2026-05-08 05:12 41.95309 33.69925 37166 ft 460 kts 289°
2026-05-08 05:12 41.97007 33.61624 37160 ft 461 kts 287°
2026-05-08 05:13 41.98556 33.53257 37150 ft 461 kts 287°
2026-05-08 05:13 42.00115 33.44896 37157 ft 461 kts 287°
2026-05-08 05:14 42.01698 33.36550 37149 ft 460 kts 287°
2026-05-08 05:14 42.03287 33.28204 37148 ft 460 kts 287°
2026-05-08 05:15 42.04870 33.19860 37146 ft 460 kts 287°
2026-05-08 05:15 42.06448 33.11499 37148 ft 461 kts 286°
2026-05-08 05:16 42.08047 33.03150 37145 ft 461 kts 287°
2026-05-08 05:16 42.09760 32.94837 37143 ft 461 kts 288°
2026-05-08 05:17 42.11475 32.86568 37143 ft 461 kts 288°
2026-05-08 05:17 42.13180 32.78236 37143 ft 461 kts 287°
2026-05-08 05:18 42.14866 32.69906 37146 ft 461 kts 287°
2026-05-08 05:18 42.16546 32.61562 37142 ft 461 kts 287°
2026-05-08 05:19 42.18220 32.53232 37146 ft 461 kts 287°
2026-05-08 05:19 42.19883 32.44877 37141 ft 461 kts 287°
2026-05-08 05:20 42.21539 32.36525 37139 ft 461 kts 287°
2026-05-08 05:20 42.23192 32.28163 37136 ft 461 kts 287°
2026-05-08 05:21 42.24830 32.19854 37138 ft 461 kts 287°
2026-05-08 05:21 42.26470 32.11489 37139 ft 461 kts 286°
2026-05-08 05:22 42.28107 32.03115 37140 ft 461 kts 286°
2026-05-08 05:22 42.29736 31.94743 37138 ft 461 kts 286°
2026-05-08 05:23 42.31362 31.86358 37130 ft 461 kts 286°
2026-05-08 05:23 42.32985 31.77969 37134 ft 461 kts 286°
2026-05-08 05:24 42.34601 31.69571 37133 ft 461 kts 286°
2026-05-08 05:24 42.36209 31.61187 37132 ft 460 kts 286°
2026-05-08 05:25 42.37808 31.52806 37124 ft 460 kts 285°
2026-05-08 05:25 42.39392 31.44475 37131 ft 460 kts 285°
2026-05-08 05:26 42.40980 31.36078 37135 ft 460 kts 285°
2026-05-08 05:26 42.42564 31.27670 37139 ft 460 kts 285°
2026-05-08 05:27 42.44140 31.19268 37123 ft 461 kts 285°
2026-05-08 05:27 42.45712 31.10852 37128 ft 462 kts 285°
2026-05-08 05:28 42.47284 31.02417 37134 ft 462 kts 285°
2026-05-08 05:28 42.48841 30.93972 37142 ft 462 kts 285°
2026-05-08 05:29 42.50393 30.85522 37137 ft 462 kts 285°
2026-05-08 05:29 42.51940 30.77070 37127 ft 462 kts 285°
2026-05-08 05:30 42.53481 30.68614 37141 ft 462 kts 285°
2026-05-08 05:30 42.55017 30.60150 37121 ft 462 kts 285°
2026-05-08 05:31 42.56546 30.51686 37125 ft 462 kts 284°
2026-05-08 05:31 42.58071 30.43208 37122 ft 462 kts 284°
2026-05-08 05:32 42.59589 30.34727 37119 ft 462 kts 284°
2026-05-08 05:32 42.61655 30.26498 37117 ft 461 kts 297°
2026-05-08 05:33 42.65114 30.19248 37135 ft 461 kts 306°
2026-05-08 05:33 42.69005 30.12317 37134 ft 461 kts 307°
2026-05-08 05:34 42.72955 30.05432 37111 ft 461 kts 307°
2026-05-08 05:34 42.76886 29.98526 37108 ft 462 kts 307°
2026-05-08 05:35 42.80793 29.91604 37125 ft 460 kts 307°
2026-05-08 05:35 42.84685 29.84676 37107 ft 460 kts 307°
2026-05-08 05:36 42.88575 29.77735 37124 ft 460 kts 307°
2026-05-08 05:36 42.92453 29.70801 37113 ft 460 kts 306°
2026-05-08 05:37 42.96303 29.63903 37114 ft 459 kts 306°
2026-05-08 05:37 43.00186 29.56929 37115 ft 461 kts 306°
2026-05-08 05:38 43.04066 29.49944 37109 ft 461 kts 306°
2026-05-08 05:38 43.07944 29.42947 37107 ft 462 kts 306°
2026-05-08 05:39 43.11818 29.35941 37108 ft 461 kts 306°
2026-05-08 05:39 43.15665 29.28966 37109 ft 461 kts 306°
2026-05-08 05:40 43.19530 29.21943 37117 ft 461 kts 306°
2026-05-08 05:40 43.23388 29.14915 37109 ft 460 kts 306°
2026-05-08 05:41 43.27229 29.07901 37115 ft 460 kts 306°
2026-05-08 05:41 43.31068 29.00874 37110 ft 460 kts 306°
2026-05-08 05:42 43.34901 28.93841 37110 ft 459 kts 306°
2026-05-08 05:42 43.38713 28.86831 37121 ft 458 kts 306°
2026-05-08 05:43 43.42520 28.79815 37113 ft 461 kts 306°
2026-05-08 05:43 43.46355 28.72726 37114 ft 462 kts 306°
2026-05-08 05:44 43.49560 28.66791 37111 ft 460 kts 306°
2026-05-08 05:44 43.53368 28.59723 37109 ft 459 kts 306°
2026-05-08 05:45 43.57169 28.52650 37099 ft 459 kts 306°
2026-05-08 05:45 43.60966 28.45569 37100 ft 459 kts 306°
2026-05-08 05:46 43.64729 28.38535 37097 ft 458 kts 306°
2026-05-08 05:46 43.68504 28.31459 37096 ft 457 kts 306°
2026-05-08 05:47 43.72275 28.24376 37093 ft 457 kts 305°
2026-05-08 05:47 43.76039 28.17286 37090 ft 457 kts 305°
2026-05-08 05:48 43.79795 28.10197 37094 ft 456 kts 305°
2026-05-08 05:48 43.83553 28.03087 37087 ft 458 kts 305°
2026-05-08 05:49 43.87312 27.95955 37084 ft 459 kts 305°
2026-05-08 05:49 43.91079 27.88793 37085 ft 458 kts 305°
2026-05-08 05:50 43.94822 27.81658 37083 ft 457 kts 305°
2026-05-08 05:50 43.98564 27.74509 37079 ft 457 kts 305°
2026-05-08 05:51 44.02292 27.67366 37073 ft 457 kts 305°
2026-05-08 05:51 44.06015 27.60218 37068 ft 456 kts 304°
2026-05-08 05:52 44.09723 27.53081 37075 ft 455 kts 304°
2026-05-08 05:52 44.13404 27.45978 37071 ft 455 kts 304°
2026-05-08 05:53 44.17108 27.38813 37071 ft 455 kts 304°
2026-05-08 05:53 44.20804 27.31646 37072 ft 455 kts 304°
2026-05-08 05:54 44.24500 27.24459 37067 ft 456 kts 304°
2026-05-08 05:54 44.28197 27.17254 37069 ft 457 kts 304°
2026-05-08 05:55 44.31892 27.10034 37076 ft 457 kts 304°
2026-05-08 05:55 44.35581 27.02811 37071 ft 457 kts 304°
2026-05-08 05:56 44.39266 26.95577 37074 ft 456 kts 304°
2026-05-08 05:56 44.42947 26.88330 37079 ft 456 kts 303°
2026-05-08 05:57 44.46618 26.81086 37073 ft 456 kts 303°
2026-05-08 05:57 44.50286 26.73829 37072 ft 456 kts 303°
2026-05-08 05:58 44.53948 26.66567 37075 ft 456 kts 303°
2026-05-08 05:58 44.57587 26.59333 37077 ft 456 kts 303°
2026-05-08 05:59 44.61206 26.52013 37079 ft 456 kts 301°
2026-05-08 05:59 44.64610 26.44504 37083 ft 456 kts 300°
2026-05-08 06:00 44.67980 26.36942 37080 ft 457 kts 300°
2026-05-08 06:00 44.71379 26.29387 37082 ft 457 kts 301°
2026-05-08 06:01 44.74793 26.21837 37079 ft 457 kts 300°
2026-05-08 06:01 44.78201 26.14296 37079 ft 456 kts 300°
2026-05-08 06:02 44.81604 26.06743 37078 ft 456 kts 300°
2026-05-08 06:02 44.84978 25.99233 37081 ft 456 kts 300°
2026-05-08 06:03 44.88370 25.91662 37078 ft 456 kts 300°
2026-05-08 06:03 44.91753 25.84089 37078 ft 456 kts 300°
2026-05-08 06:04 44.95135 25.76498 37082 ft 456 kts 300°
2026-05-08 06:04 44.98508 25.68909 37079 ft 456 kts 300°
2026-05-08 06:05 45.01876 25.61311 37083 ft 456 kts 300°
2026-05-08 06:05 45.05238 25.53705 37085 ft 456 kts 299°
2026-05-08 06:06 45.08577 25.46130 37078 ft 456 kts 299°
2026-05-08 06:06 45.11952 25.38455 37082 ft 457 kts 299°
2026-05-08 06:07 45.15289 25.30844 37068 ft 457 kts 299°
2026-05-08 06:07 45.18640 25.23182 37065 ft 458 kts 299°
2026-05-08 06:08 45.21988 25.15508 37077 ft 458 kts 299°
2026-05-08 06:08 45.25329 25.07826 37073 ft 457 kts 299°
2026-05-08 06:09 45.28662 25.00142 37070 ft 457 kts 298°
2026-05-08 06:09 45.31993 24.92442 37068 ft 457 kts 298°
2026-05-08 06:10 45.35317 24.84738 37066 ft 457 kts 298°
2026-05-08 06:10 45.38638 24.77016 37067 ft 457 kts 298°
2026-05-08 06:11 45.41958 24.69280 37073 ft 458 kts 298°
2026-05-08 06:11 45.45273 24.61532 37069 ft 458 kts 298°
2026-05-08 06:12 45.48586 24.53775 37073 ft 459 kts 298°
2026-05-08 06:12 45.51878 24.46049 37083 ft 459 kts 298°
2026-05-08 06:13 45.55180 24.38261 37070 ft 459 kts 298°
2026-05-08 06:13 45.58483 24.30449 37070 ft 460 kts 298°
2026-05-08 06:14 45.61781 24.22633 37063 ft 460 kts 298°
2026-05-08 06:14 45.65051 24.14764 37079 ft 459 kts 296°
2026-05-08 06:15 45.68026 24.06696 37070 ft 458 kts 294°
2026-05-08 06:15 45.70916 23.98597 37077 ft 458 kts 294°
2026-05-08 06:16 45.73855 23.90500 37075 ft 458 kts 295°
2026-05-08 06:16 45.76788 23.82472 37071 ft 458 kts 295°
2026-05-08 06:17 45.81217 23.70337 37067 ft 458 kts 295°
2026-05-08 06:17 45.84160 23.62241 37062 ft 458 kts 295°
2026-05-08 06:18 45.87098 23.54137 37062 ft 458 kts 294°
2026-05-08 06:18 45.90031 23.46021 37062 ft 457 kts 294°
2026-05-08 06:19 45.92948 23.37925 37059 ft 456 kts 294°
2026-05-08 06:19 45.95857 23.29825 37062 ft 456 kts 294°
2026-05-08 06:20 45.98757 23.21726 37063 ft 456 kts 294°
2026-05-08 06:20 46.01653 23.13613 37065 ft 455 kts 294°
2026-05-08 06:21 46.04521 23.05556 37062 ft 455 kts 294°
2026-05-08 06:21 46.07404 22.97431 37060 ft 455 kts 294°
2026-05-08 06:22 46.10278 22.89311 37069 ft 455 kts 294°
2026-05-08 06:22 46.13153 22.81153 37071 ft 456 kts 294°
2026-05-08 06:23 46.16022 22.72995 37070 ft 456 kts 293°
2026-05-08 06:23 46.18866 22.64887 37064 ft 456 kts 293°
2026-05-08 06:24 46.21724 22.56710 37063 ft 456 kts 293°
2026-05-08 06:24 46.24579 22.48517 37074 ft 456 kts 293°
2026-05-08 06:25 46.27424 22.40329 37056 ft 456 kts 293°
2026-05-08 06:25 46.30266 22.32119 37074 ft 456 kts 293°
2026-05-08 06:26 46.33097 22.23914 37056 ft 456 kts 293°
2026-05-08 06:26 46.35924 22.15699 37067 ft 456 kts 292°
2026-05-08 06:27 46.38740 22.07489 37059 ft 456 kts 292°
2026-05-08 06:27 46.41554 21.99262 37059 ft 455 kts 292°
2026-05-08 06:28 46.44359 21.91034 37057 ft 455 kts 292°
2026-05-08 06:28 46.47161 21.82786 37076 ft 455 kts 292°
2026-05-08 06:29 46.49483 21.75934 37056 ft 455 kts 292°
2026-05-08 06:29 46.52724 21.66340 37056 ft 455 kts 292°
2026-05-08 06:30 46.55055 21.59418 37056 ft 455 kts 292°
2026-05-08 06:30 46.57830 21.51154 37056 ft 455 kts 292°
2026-05-08 06:31 46.60583 21.42929 37049 ft 455 kts 292°
2026-05-08 06:31 46.63343 21.34655 37051 ft 455 kts 292°
2026-05-08 06:32 46.66109 21.26336 37050 ft 456 kts 292°
2026-05-08 06:32 46.68863 21.18028 37051 ft 456 kts 292°
2026-05-08 06:33 46.71616 21.09700 37052 ft 455 kts 292°
2026-05-08 06:33 46.74359 21.01370 37050 ft 455 kts 292°
2026-05-08 06:34 46.77094 20.93040 37051 ft 455 kts 292°
2026-05-08 06:34 46.79823 20.84703 37051 ft 455 kts 292°
2026-05-08 06:35 46.82545 20.76358 37041 ft 455 kts 291°
2026-05-08 06:35 46.85259 20.68010 37044 ft 454 kts 291°
2026-05-08 06:36 46.87962 20.59670 37044 ft 454 kts 291°
2026-05-08 06:36 46.90661 20.51315 37042 ft 454 kts 291°
2026-05-08 06:37 46.93352 20.42959 37038 ft 454 kts 291°
2026-05-08 06:37 46.96038 20.34587 37045 ft 454 kts 291°
2026-05-08 06:38 46.98716 20.26217 37046 ft 454 kts 291°
2026-05-08 06:38 47.01391 20.17826 37049 ft 454 kts 291°
2026-05-08 06:39 47.04042 20.09484 37069 ft 454 kts 291°
2026-05-08 06:39 47.06703 20.01086 37057 ft 453 kts 291°
2026-05-08 06:40 47.09352 19.92694 37060 ft 453 kts 291°
2026-05-08 06:40 47.11996 19.84292 37047 ft 453 kts 291°
2026-05-08 06:41 47.14632 19.75886 37051 ft 453 kts 291°
2026-05-08 06:41 47.17260 19.67477 37049 ft 452 kts 291°
2026-05-08 06:42 47.19877 19.59077 37050 ft 452 kts 291°
2026-05-08 06:42 47.22485 19.50677 37057 ft 452 kts 291°
2026-05-08 06:43 47.25072 19.42318 37060 ft 452 kts 291°
2026-05-08 06:43 47.27669 19.33898 37068 ft 452 kts 291°
2026-05-08 06:44 47.30264 19.25454 37069 ft 452 kts 290°
2026-05-08 06:44 47.32852 19.17010 37071 ft 452 kts 290°
2026-05-08 06:45 47.35378 19.08531 37069 ft 451 kts 288°
2026-05-08 06:45 47.37548 18.99870 37067 ft 450 kts 286°
2026-05-08 06:46 47.39647 18.91160 37059 ft 450 kts 287°
2026-05-08 06:46 47.41789 18.82467 37053 ft 450 kts 287°
2026-05-08 06:47 47.43957 18.73788 37046 ft 450 kts 287°
2026-05-08 06:47 47.46127 18.65105 37048 ft 450 kts 287°
2026-05-08 06:48 47.48290 18.56411 37050 ft 452 kts 287°
2026-05-08 06:48 47.50451 18.47684 37052 ft 452 kts 287°
2026-05-08 06:49 47.52605 18.38949 37054 ft 452 kts 287°
2026-05-08 06:49 47.54754 18.30200 37056 ft 452 kts 287°
2026-05-08 06:50 47.56893 18.21456 37054 ft 452 kts 287°
2026-05-08 06:50 47.59025 18.12705 37058 ft 451 kts 287°
2026-05-08 06:51 47.61136 18.04006 37060 ft 451 kts 287°
2026-05-08 06:51 47.63256 17.95238 37063 ft 451 kts 287°
2026-05-08 06:52 47.65368 17.86469 37073 ft 452 kts 287°
2026-05-08 06:52 47.67478 17.77670 37076 ft 453 kts 286°
2026-05-08 06:53 47.69584 17.68855 37075 ft 453 kts 286°
2026-05-08 06:53 47.71680 17.60046 37076 ft 453 kts 286°
2026-05-08 06:54 47.73775 17.51205 37072 ft 454 kts 286°
2026-05-08 06:54 47.75856 17.42387 37072 ft 456 kts 286°
2026-05-08 06:55 47.77949 17.33484 37071 ft 456 kts 286°
2026-05-08 06:55 47.80035 17.24577 37081 ft 456 kts 286°
2026-05-08 06:56 47.82112 17.15668 37079 ft 456 kts 286°
2026-05-08 06:56 47.84211 17.06762 37083 ft 457 kts 287°
2026-05-08 06:57 47.86449 16.97891 37083 ft 457 kts 288°
2026-05-08 06:57 47.88705 16.89022 37085 ft 457 kts 288°
2026-05-08 06:58 47.90921 16.80193 37095 ft 457 kts 287°
2026-05-08 06:58 47.93129 16.71306 37098 ft 457 kts 287°
2026-05-08 06:59 47.95328 16.62404 37101 ft 457 kts 287°
2026-05-08 06:59 47.97519 16.53507 37098 ft 457 kts 287°
2026-05-08 07:00 47.99706 16.44587 37098 ft 457 kts 287°
2026-05-08 07:00 48.01887 16.35660 37100 ft 457 kts 287°
2026-05-08 07:01 48.04059 16.26730 37096 ft 457 kts 287°
2026-05-08 07:01 48.06225 16.17794 37099 ft 457 kts 287°
2026-05-08 07:02 48.08369 16.08911 37097 ft 457 kts 287°
2026-05-08 07:02 48.10523 15.99949 37098 ft 457 kts 287°
2026-05-08 07:03 48.12667 15.90993 37097 ft 458 kts 287°
2026-05-08 07:03 48.14811 15.81999 37096 ft 458 kts 287°
2026-05-08 07:04 48.16946 15.73008 37094 ft 458 kts 287°
2026-05-08 07:04 48.19078 15.63994 37108 ft 458 kts 287°
2026-05-08 07:05 48.21199 15.54987 37095 ft 458 kts 287°
2026-05-08 07:05 48.23304 15.46012 37100 ft 459 kts 287°
2026-05-08 07:06 48.25418 15.36960 37095 ft 460 kts 287°
2026-05-08 07:06 48.27527 15.27894 37095 ft 460 kts 287°
2026-05-08 07:07 48.29627 15.18824 37110 ft 459 kts 287°
2026-05-08 07:07 48.31717 15.09762 37092 ft 459 kts 287°
2026-05-08 07:08 48.33803 15.00679 37093 ft 460 kts 287°
2026-05-08 07:08 48.35879 14.91600 37091 ft 460 kts 287°
2026-05-08 07:09 48.37949 14.82509 37091 ft 460 kts 287°
2026-05-08 07:09 48.40014 14.73408 37089 ft 459 kts 287°
2026-05-08 07:10 48.42071 14.64290 37091 ft 459 kts 287°
2026-05-08 07:10 48.44120 14.55175 37094 ft 459 kts 287°
2026-05-08 07:11 48.46162 14.46050 37095 ft 459 kts 286°
2026-05-08 07:11 48.48183 14.36978 37101 ft 459 kts 286°
2026-05-08 07:12 48.50210 14.27845 37094 ft 459 kts 286°
2026-05-08 07:12 48.52232 14.18691 37093 ft 459 kts 286°
2026-05-08 07:13 48.54245 14.09541 37082 ft 459 kts 286°
2026-05-08 07:13 48.56252 14.00377 37091 ft 459 kts 286°
2026-05-08 07:14 48.58249 13.91211 37091 ft 460 kts 286°
2026-05-08 07:14 48.60245 13.82013 37091 ft 461 kts 286°
2026-05-08 07:15 48.61896 13.74373 37088 ft 460 kts 286°
2026-05-08 07:15 48.63877 13.65174 37093 ft 460 kts 286°
2026-05-08 07:16 48.65851 13.55958 37093 ft 460 kts 285°
2026-05-08 07:16 48.67751 13.46692 37092 ft 461 kts 285°
2026-05-08 07:17 48.69612 13.37413 37096 ft 461 kts 285°
2026-05-08 07:17 48.71476 13.28113 37107 ft 461 kts 285°
2026-05-08 07:18 48.73342 13.18814 37100 ft 461 kts 285°
2026-05-08 07:18 48.75203 13.09515 37104 ft 461 kts 285°
2026-05-08 07:19 48.77056 13.00206 37109 ft 461 kts 284°
2026-05-08 07:19 48.78903 12.90882 37108 ft 462 kts 284°
2026-05-08 07:20 48.80730 12.81613 37111 ft 461 kts 284°
2026-05-08 07:20 48.82563 12.72267 37103 ft 461 kts 284°
2026-05-08 07:21 48.84387 12.62923 37117 ft 461 kts 284°
2026-05-08 07:21 48.86201 12.53587 37110 ft 461 kts 284°
2026-05-08 07:22 48.88010 12.44228 37112 ft 461 kts 284°
2026-05-08 07:22 48.89810 12.34869 37117 ft 461 kts 284°
2026-05-08 07:23 48.91605 12.25492 37112 ft 462 kts 284°
2026-05-08 07:23 48.93380 12.16167 37123 ft 462 kts 284°
2026-05-08 07:24 48.95161 12.06774 37118 ft 462 kts 284°
2026-05-08 07:24 48.96933 11.97374 37115 ft 462 kts 284°
2026-05-08 07:25 48.98698 11.87967 37114 ft 463 kts 284°
2026-05-08 07:26 49.01337 11.73815 37114 ft 463 kts 284°
2026-05-08 07:26 49.03087 11.64370 37112 ft 463 kts 284°
2026-05-08 07:27 49.04829 11.54918 37118 ft 463 kts 284°
2026-05-08 07:27 49.06564 11.45460 37114 ft 464 kts 283°
2026-05-08 07:28 49.08291 11.35990 37108 ft 464 kts 283°
2026-05-08 07:28 49.10012 11.26504 37105 ft 464 kts 283°
2026-05-08 07:29 49.11717 11.17061 37113 ft 464 kts 283°
2026-05-08 07:29 49.13424 11.07557 37116 ft 464 kts 283°
2026-05-08 07:30 49.15125 10.98037 37131 ft 464 kts 283°
2026-05-08 07:30 49.16818 10.88509 37134 ft 464 kts 283°
2026-05-08 07:31 49.18502 10.78984 37152 ft 464 kts 283°
2026-05-08 07:31 49.20173 10.69504 37152 ft 464 kts 283°
2026-05-08 07:32 49.21877 10.59976 37138 ft 465 kts 283°
2026-05-08 07:32 49.23584 10.50432 37136 ft 465 kts 283°
2026-05-08 07:33 49.25283 10.40860 37139 ft 465 kts 283°
2026-05-08 07:33 49.26967 10.31307 37125 ft 465 kts 283°
2026-05-08 07:34 49.28645 10.21735 37129 ft 465 kts 283°
2026-05-08 07:34 49.30317 10.12144 37136 ft 466 kts 283°
2026-05-08 07:35 49.31969 10.02616 37129 ft 465 kts 283°
2026-05-08 07:35 49.33623 9.93028 37130 ft 465 kts 283°
2026-05-08 07:36 49.35271 9.83420 37140 ft 465 kts 283°
2026-05-08 07:36 49.36911 9.73807 37123 ft 466 kts 282°
2026-05-08 07:37 49.38546 9.64169 37115 ft 466 kts 282°
2026-05-08 07:37 49.40171 9.54536 37110 ft 466 kts 282°
2026-05-08 07:38 49.41788 9.44895 37103 ft 466 kts 282°
2026-05-08 07:38 49.43396 9.35251 37099 ft 466 kts 282°
2026-05-08 07:39 49.45001 9.25575 37097 ft 467 kts 282°
2026-05-08 07:39 49.46598 9.15898 37095 ft 467 kts 282°
2026-05-08 07:40 49.48074 9.06182 37093 ft 466 kts 280°
2026-05-08 07:40 49.49383 8.96413 37119 ft 466 kts 279°
2026-05-08 07:41 49.50685 8.86704 37112 ft 467 kts 279°
2026-05-08 07:41 49.52018 8.76918 37120 ft 467 kts 280°
2026-05-08 07:42 49.53356 8.67128 37128 ft 467 kts 280°
2026-05-08 07:42 49.54688 8.57334 37129 ft 467 kts 279°
2026-05-08 07:43 49.56002 8.47541 37129 ft 467 kts 279°
2026-05-08 07:43 49.57309 8.37729 37107 ft 467 kts 279°
2026-05-08 07:44 49.58612 8.27912 37113 ft 467 kts 279°
2026-05-08 07:44 49.59907 8.18100 37113 ft 467 kts 279°
2026-05-08 07:45 49.61042 8.09445 37118 ft 467 kts 279°
2026-05-08 07:45 49.62323 7.99620 37114 ft 468 kts 279°
2026-05-08 07:46 49.63587 7.89850 37113 ft 468 kts 279°
2026-05-08 07:46 49.64851 7.80010 37110 ft 468 kts 279°
2026-05-08 07:47 49.66109 7.70147 37107 ft 468 kts 279°
2026-05-08 07:47 49.67357 7.60291 37108 ft 468 kts 279°
2026-05-08 07:48 49.68598 7.50420 37107 ft 468 kts 279°
2026-05-08 07:48 49.69830 7.40553 37276 ft 468 kts 279°
2026-05-08 07:48 49.70442 7.35620 37520 ft 467 kts 278°
2026-05-08 07:49 49.71052 7.30690 37737 ft 466 kts 278°
2026-05-08 07:49 49.71660 7.25762 37931 ft 466 kts 278°
2026-05-08 07:49 49.72264 7.20839 38079 ft 468 kts 278°
2026-05-08 07:50 49.73469 7.10971 38086 ft 470 kts 278°
2026-05-08 07:50 49.74674 7.01029 38079 ft 470 kts 278°
2026-05-08 07:51 49.75869 6.91094 38078 ft 470 kts 278°
2026-05-08 07:51 49.77055 6.81156 38092 ft 470 kts 278°
2026-05-08 07:52 49.78232 6.71209 38088 ft 470 kts 278°
2026-05-08 07:52 49.79405 6.61228 38084 ft 470 kts 278°
2026-05-08 07:53 49.80568 6.51263 38087 ft 470 kts 278°
2026-05-08 07:53 49.81098 6.41226 38086 ft 467 kts 265°
2026-05-08 07:54 49.80162 6.31368 38102 ft 466 kts 258°
2026-05-08 07:54 49.78867 6.21537 38091 ft 466 kts 257°
2026-05-08 07:55 49.77518 6.11729 38093 ft 466 kts 257°
2026-05-08 07:55 49.76180 6.01915 38095 ft 466 kts 257°
2026-05-08 07:56 49.74849 5.92092 38089 ft 466 kts 257°
2026-05-08 07:56 49.73095 5.82469 38089 ft 465 kts 251°
2026-05-08 07:57 49.70954 5.73020 38076 ft 466 kts 250°
2026-05-08 07:57 49.68761 5.63671 38075 ft 466 kts 249°
2026-05-08 07:58 49.66546 5.54269 37937 ft 464 kts 249°
2026-05-08 07:58 49.65446 5.49597 37196 ft 464 kts 249°
2026-05-08 07:58 49.64342 5.44911 36388 ft 466 kts 249°
2026-05-08 07:58 49.63237 5.40224 35712 ft 465 kts 249°
2026-05-08 07:59 49.62133 5.35544 35055 ft 464 kts 249°
2026-05-08 07:59 49.61078 5.30847 34396 ft 463 kts 250°
2026-05-08 07:59 49.60088 5.26114 33578 ft 464 kts 253°
2026-05-08 07:59 49.59412 5.21248 32807 ft 465 kts 261°
2026-05-08 08:00 49.59201 5.16269 32044 ft 466 kts 268°
2026-05-08 08:00 49.59217 5.11271 31262 ft 467 kts 269°
2026-05-08 08:00 49.59245 5.07948 30731 ft 468 kts 269°
2026-05-08 08:00 49.59290 5.02935 29879 ft 469 kts 269°
2026-05-08 08:01 49.59332 4.97921 29236 ft 464 kts 269°
2026-05-08 08:01 49.59372 4.93017 29088 ft 450 kts 269°
2026-05-08 08:01 49.59407 4.88257 28942 ft 437 kts 268°
2026-05-08 08:01 49.59438 4.83638 28612 ft 428 kts 268°
2026-05-08 08:02 49.59465 4.79070 28121 ft 423 kts 268°
2026-05-08 08:02 49.59494 4.74552 27677 ft 422 kts 268°
2026-05-08 08:02 49.59517 4.70001 27235 ft 426 kts 268°
2026-05-08 08:02 49.59537 4.65428 26786 ft 427 kts 268°
2026-05-08 08:03 49.59556 4.60869 26334 ft 424 kts 268°
2026-05-08 08:03 49.59574 4.56338 25891 ft 421 kts 268°
2026-05-08 08:03 49.59591 4.51841 25440 ft 418 kts 268°
2026-05-08 08:03 49.59606 4.47365 25019 ft 416 kts 268°
2026-05-08 08:04 49.59619 4.42917 24579 ft 414 kts 268°
2026-05-08 08:04 49.59630 4.38488 24136 ft 412 kts 268°
2026-05-08 08:04 49.59639 4.34082 23695 ft 410 kts 268°
2026-05-08 08:04 49.59648 4.29748 23225 ft 408 kts 268°
2026-05-08 08:05 49.59654 4.25392 22785 ft 406 kts 268°
2026-05-08 08:05 49.59659 4.21056 22356 ft 404 kts 268°
2026-05-08 08:05 49.59662 4.16744 21929 ft 401 kts 268°
2026-05-08 08:05 49.59662 4.12444 21500 ft 399 kts 268°
2026-05-08 08:06 49.59451 4.08207 21096 ft 395 kts 257°
2026-05-08 08:06 49.58563 4.04245 20690 ft 390 kts 241°
2026-05-08 08:06 49.57179 4.00675 20281 ft 387 kts 236°
2026-05-08 08:06 49.55707 3.97207 19882 ft 386 kts 235°
2026-05-08 08:07 49.54234 3.93760 19458 ft 384 kts 235°
2026-05-08 08:07 49.52775 3.90327 19039 ft 382 kts 235°
2026-05-08 08:07 49.51326 3.86914 18638 ft 380 kts 235°
2026-05-08 08:07 49.49889 3.83523 18237 ft 378 kts 235°
2026-05-08 08:08 49.48463 3.80143 17808 ft 376 kts 236°
2026-05-08 08:08 49.47302 3.76551 17421 ft 376 kts 249°
2026-05-08 08:08 49.46567 3.72700 17024 ft 374 kts 253°
2026-05-08 08:08 49.45927 3.68837 16629 ft 372 kts 254°
2026-05-08 08:09 49.45292 3.65002 16230 ft 369 kts 254°
2026-05-08 08:09 49.44665 3.61221 15932 ft 366 kts 254°
2026-05-08 08:09 49.44031 3.57432 15740 ft 365 kts 254°
2026-05-08 08:09 49.43391 3.53668 15533 ft 364 kts 254°
2026-05-08 08:10 49.42750 3.49910 15327 ft 362 kts 254°
2026-05-08 08:10 49.42098 3.46170 15095 ft 361 kts 252°
2026-05-08 08:10 49.41268 3.42596 14891 ft 359 kts 247°
2026-05-08 08:10 49.40329 3.39057 14639 ft 358 kts 246°
2026-05-08 08:11 49.39382 3.35543 14387 ft 356 kts 246°
2026-05-08 08:11 49.38436 3.32030 14150 ft 355 kts 246°
2026-05-08 08:11 49.37496 3.28537 13904 ft 354 kts 246°
2026-05-08 08:11 49.36558 3.25051 13643 ft 353 kts 246°
2026-05-08 08:12 49.35631 3.21605 13399 ft 351 kts 246°
2026-05-08 08:12 49.34697 3.18142 13156 ft 350 kts 246°
2026-05-08 08:12 49.33768 3.14699 12923 ft 349 kts 246°
2026-05-08 08:12 49.32839 3.11260 12684 ft 348 kts 246°
2026-05-08 08:13 49.31909 3.07823 12435 ft 348 kts 246°
2026-05-08 08:13 49.30980 3.04394 12197 ft 348 kts 246°
2026-05-08 08:13 49.30051 3.00972 11961 ft 347 kts 246°
2026-05-08 08:13 49.29124 2.97562 11721 ft 346 kts 246°
2026-05-08 08:14 49.28198 2.94160 11482 ft 345 kts 247°
2026-05-08 08:14 49.27280 2.90793 11315 ft 337 kts 247°
2026-05-08 08:14 49.26403 2.87578 11092 ft 325 kts 247°
2026-05-08 08:14 49.25546 2.84442 10914 ft 314 kts 247°
2026-05-08 08:15 49.24719 2.81419 10733 ft 303 kts 247°
2026-05-08 08:15 49.23917 2.78492 10519 ft 294 kts 247°
2026-05-08 08:15 49.23136 2.75647 10284 ft 286 kts 247°
2026-05-08 08:15 49.22375 2.72877 10087 ft 280 kts 247°
2026-05-08 08:16 49.21621 2.70136 10072 ft 280 kts 247°
2026-05-08 08:16 49.20863 2.67381 10072 ft 281 kts 247°
2026-05-08 08:16 49.20104 2.64627 10077 ft 281 kts 248°
2026-05-08 08:16 49.19342 2.61868 9997 ft 280 kts 248°
2026-05-08 08:17 49.18590 2.59129 9532 ft 280 kts 248°
2026-05-08 08:17 49.18093 2.56255 9011 ft 280 kts 265°
2026-05-08 08:17 49.17981 2.53288 8585 ft 279 kts 269°
2026-05-08 08:17 49.17928 2.50326 8140 ft 279 kts 269°
2026-05-08 08:18 49.17873 2.47375 7731 ft 277 kts 269°
2026-05-08 08:18 49.17815 2.44433 7329 ft 276 kts 269°
2026-05-08 08:18 49.17681 2.41506 6894 ft 276 kts 263°
2026-05-08 08:18 49.17192 2.38670 6486 ft 277 kts 249°
2026-05-08 08:19 49.16267 2.36100 6062 ft 276 kts 234°
2026-05-08 08:19 49.14961 2.33959 5684 ft 275 kts 220°
2026-05-08 08:19 49.13481 2.32202 5335 ft 271 kts 216°
2026-05-08 08:19 49.11963 2.30498 4946 ft 270 kts 216°
2026-05-08 08:20 49.10459 2.28805 4545 ft 268 kts 216°
2026-05-08 08:20 49.08959 2.27107 4159 ft 267 kts 216°
2026-05-08 08:20 49.07475 2.25424 4029 ft 266 kts 216°
2026-05-08 08:20 49.05993 2.23743 4021 ft 267 kts 216°
2026-05-08 08:21 49.04516 2.22066 4019 ft 267 kts 216°
2026-05-08 08:21 49.03021 2.20369 4020 ft 267 kts 216°
2026-05-08 08:21 49.01539 2.18686 4014 ft 261 kts 216°
2026-05-08 08:21 49.00080 2.17208 4005 ft 242 kts 204°
2026-05-08 08:22 48.98512 2.16764 4008 ft 222 kts 172°
2026-05-08 08:22 48.97159 2.17551 4019 ft 199 kts 142°
2026-05-08 08:22 48.96315 2.19050 4017 ft 179 kts 116°
2026-05-08 08:22 48.96009 2.20775 4013 ft 162 kts 92°
2026-05-08 08:23 48.96155 2.22412 4013 ft 154 kts 71°
2026-05-08 08:23 48.96665 2.23798 4012 ft 148 kts 50°
2026-05-08 08:23 48.97450 2.24793 4020 ft 148 kts 30°
2026-05-08 08:23 48.98417 2.25306 4020 ft 149 kts 10°
2026-05-08 08:24 48.99453 2.25257 4024 ft 151 kts 350°
2026-05-08 08:24 49.00433 2.24678 4025 ft 151 kts 333°
2026-05-08 08:24 49.01440 2.24393 4007 ft 150 kts 19°
2026-05-08 08:24 49.02116 2.25479 4012 ft 147 kts 78°
2026-05-08 08:25 49.01997 2.26995 4038 ft 145 kts 102°
2026-05-08 08:25 49.01778 2.28486 3946 ft 150 kts 101°
2026-05-08 08:25 49.01565 2.30053 3759 ft 147 kts 101°
2026-05-08 08:25 49.01364 2.31562 3605 ft 145 kts 100°
2026-05-08 08:26 49.01207 2.33066 3438 ft 142 kts 94°
2026-05-08 08:26 49.01191 2.34576 3288 ft 143 kts 86°
2026-05-08 08:26 49.01351 2.36084 3101 ft 148 kts 79°
2026-05-08 08:26 49.01573 2.37628 2781 ft 149 kts 74°
2026-05-08 08:27 49.01741 2.39145 2503 ft 144 kts 84°
2026-05-08 08:27 49.01842 2.40639 2291 ft 138 kts 86°
2026-05-08 08:27 49.01897 2.42079 2091 ft 136 kts 87°
2026-05-08 08:27 49.01942 2.43539 1904 ft 140 kts 81°
2026-05-08 08:28 49.02038 2.45019 1629 ft 140 kts 84°
2026-05-08 08:28 49.02117 2.46495 1296 ft 140 kts 84°
2026-05-08 08:28 49.02200 2.47964 1002 ft 138 kts 83°
2026-05-08 08:28 49.02280 2.49418 792 ft 137 kts 83°
2026-05-08 08:29 49.02369 2.50864 642 ft 138 kts 83°
2026-05-08 08:29 49.02459 2.52325 426 ft 138 kts 81°
2026-05-08 08:29 49.02543 2.53710 370 ft 120 kts 85°
2026-05-08 08:29 49.02589 2.54574 359 ft 60 kts 85°
2026-05-08 08:30 49.02588 2.55176 364 ft 55 kts 101°
2026-05-08 08:30 49.02510 2.55481 369 ft 0 kts 116°
2026-05-08 08:31 49.02497 2.55523 365 ft 9 kts 116°
2026-05-08 08:31 49.02423 2.55601 367 ft 18 kts 164°
2026-05-08 08:32 49.02276 2.55626 368 ft 26 kts 174°
2026-05-08 08:32 49.02174 2.55640 368 ft 30 kts 174°
2026-05-08 08:32 49.02103 2.55637 364 ft 13 kts 208°
2026-05-08 08:32 49.02066 2.55498 369 ft 20 kts 267°
2026-05-08 08:33 49.02050 2.55241 361 ft 29 kts 265°
2026-05-08 08:33 49.02022 2.54916 367 ft 30 kts 238°
2026-05-08 08:33 49.01808 2.54857 363 ft 36 kts 175°
2026-05-08 08:33 49.01538 2.54891 365 ft 42 kts 175°
2026-05-08 08:34 49.01237 2.54983 367 ft 46 kts 166°
2026-05-08 08:34 49.00916 2.55126 369 ft 50 kts 164°
2026-05-08 08:34 49.00625 2.55252 367 ft 40 kts 163°
2026-05-08 08:34 49.00361 2.55366 362 ft 38 kts 164°
2026-05-08 08:35 49.00133 2.55465 366 ft 32 kts 164°
2026-05-08 08:35 48.99996 2.55565 369 ft 20 kts 125°
2026-05-08 08:35 48.99928 2.55752 369 ft 21 kts 113°
2026-05-08 08:35 48.99891 2.55969 360 ft 22 kts 94°
2026-05-08 08:36 48.99898 2.56202 363 ft 23 kts 85°
2026-05-08 08:36 48.99911 2.56446 365 ft 23 kts 86°
2026-05-08 08:36 48.99924 2.56696 363 ft 24 kts 85°
2026-05-08 08:36 48.99937 2.56955 360 ft 25 kts 85°
2026-05-08 08:37 48.99952 2.57220 365 ft 25 kts 85°
2026-05-08 08:37 48.99967 2.57493 363 ft 26 kts 85°
2026-05-08 08:37 48.99982 2.57771 363 ft 27 kts 85°
2026-05-08 08:37 48.99998 2.58054 363 ft 27 kts 85°
2026-05-08 08:38 49.00012 2.58341 367 ft 26 kts 85°
2026-05-08 08:38 49.00022 2.58514 363 ft 13 kts 85°
2026-05-08 08:38 49.00030 2.58651 360 ft 13 kts 85°
2026-05-08 08:38 49.00038 2.58798 363 ft 15 kts 85°
2026-05-08 08:39 49.00092 2.58895 365 ft 13 kts
2026-05-08 08:39 49.00187 2.58884 366 ft 15 kts 354°
2026-05-08 08:39 49.00294 2.58871 364 ft 16 kts 355°
2026-05-08 08:39 49.00413 2.58857 364 ft 18 kts 355°
2026-05-08 08:40 49.00540 2.58841 367 ft 19 kts 355°
2026-05-08 08:40 49.00626 2.58848 369 ft 6 kts 40°
2026-05-08 08:40 49.00638 2.58914 366 ft 5 kts 86°
2026-05-08 08:40 49.00638 2.58926 366 ft 0 kts 86°
2026-05-08 08:41 49.00639 2.58941 366 ft 1 kts 86°
2026-05-08 08:41 49.00639 2.58947 366 ft 0 kts 86°
2026-05-08 08:41 49.00639 2.58953 366 ft 1 kts 86°
2026-05-08 08:41 49.00640 2.58955 366 ft 0 kts 86°